<?xml version='1.0' encoding='UTF-8'?>
<gpx xmlns="http://www.topografix.com/GPX/1/1" creator="www.balnam.be" version="1.1" xmlns:xsi="http://www.w3.org/2001/XMLSchema-instance" xsi:schemaLocation="http://www.topografix.com/GPX/1/1 http://www.topografix.com/GPX/1/1/gpx.xsd">
<trk>
<name>lsafc10</name>
<cmt>q</cmt>
<desc>Francorchamps Chemin n°10 </desc>
<link href="https://chemins.be/francorchamps/chemin/10"/><trkseg>
<trkpt lat="50.443027" lon="5.938808"><time>2026-05-02T16:09:14Z</time></trkpt>
<trkpt lat="50.443683" lon="5.938636"><time>2026-05-02T16:19:14Z</time></trkpt>
</trkseg>
</trk>
<trk>
<name>lsafc11</name>
<cmt>v</cmt>
<desc>Francorchamps Chemin n°11 </desc>
<link href="https://chemins.be/francorchamps/chemin/11"/><trkseg>
<trkpt lat="50.471597" lon="5.978507"><time>2026-05-02T16:09:14Z</time></trkpt>
<trkpt lat="50.471751" lon="5.980910"><time>2026-05-02T16:19:14Z</time></trkpt>
<trkpt lat="50.471780" lon="5.981603"><time>2026-05-02T16:29:14Z</time></trkpt>
</trkseg></trk>
<trk>
<name>lsafc11</name>
<cmt>s</cmt>
<desc>Francorchamps Chemin n°11 </desc>
<link href="https://chemins.be/francorchamps/chemin/11"/><trkseg>
<trkpt lat="50.471780" lon="5.981603"><time>2026-05-02T16:29:14Z</time></trkpt>
<trkpt lat="50.471838" lon="5.983017"><time>2026-05-02T16:39:14Z</time></trkpt>
</trkseg></trk>
<trk>
<name>lsafc11</name>
<cmt>q</cmt>
<desc>Francorchamps Chemin n°11 </desc>
<link href="https://chemins.be/francorchamps/chemin/11"/><trkseg>
<trkpt lat="50.471838" lon="5.983017"><time>2026-05-02T16:39:14Z</time></trkpt>
<trkpt lat="50.471888" lon="5.985052"><time>2026-05-02T16:49:14Z</time></trkpt>
<trkpt lat="50.472027" lon="5.985939"><time>2026-05-02T16:59:14Z</time></trkpt>
<trkpt lat="50.472361" lon="5.986886"><time>2026-05-02T17:09:14Z</time></trkpt>
</trkseg>
</trk>
<trk>
<name>lsafc12</name>
<cmt>r</cmt>
<desc>Francorchamps Chemin n°12 Route des Blanches Pierres</desc>
<link href="https://chemins.be/francorchamps/chemin/12"/><trkseg>
<trkpt lat="50.479839" lon="5.991844"><time>2026-05-02T16:09:14Z</time></trkpt>
<trkpt lat="50.479392" lon="5.991412"><time>2026-05-02T16:19:14Z</time></trkpt>
</trkseg></trk>
<trk>
<name>lsafc12</name>
<cmt>q</cmt>
<desc>Francorchamps Chemin n°12 Route des Blanches Pierres</desc>
<link href="https://chemins.be/francorchamps/chemin/12"/><trkseg>
<trkpt lat="50.479392" lon="5.991412"><time>2026-05-02T16:19:14Z</time></trkpt>
<trkpt lat="50.478871" lon="5.991265"><time>2026-05-02T16:29:14Z</time></trkpt>
<trkpt lat="50.477637" lon="5.990228"><time>2026-05-02T16:39:14Z</time></trkpt>
</trkseg></trk>
<trk>
<name>lsafc12</name>
<cmt>r</cmt>
<desc>Francorchamps Chemin n°12 Route des Blanches Pierres</desc>
<link href="https://chemins.be/francorchamps/chemin/12"/><trkseg>
<trkpt lat="50.477637" lon="5.990228"><time>2026-05-02T16:39:14Z</time></trkpt>
<trkpt lat="50.475345" lon="5.989071"><time>2026-05-02T16:49:14Z</time></trkpt>
<trkpt lat="50.473287" lon="5.987275"><time>2026-05-02T16:59:14Z</time></trkpt>
</trkseg></trk>
<trk>
<name>lsafc12</name>
<cmt>v</cmt>
<desc>Francorchamps Chemin n°12 Route des Blanches Pierres</desc>
<link href="https://chemins.be/francorchamps/chemin/12"/><trkseg>
<trkpt lat="50.473287" lon="5.987275"><time>2026-05-02T16:59:14Z</time></trkpt>
<trkpt lat="50.472854" lon="5.987053"><time>2026-05-02T17:09:14Z</time></trkpt>
</trkseg></trk>
<trk>
<name>lsafc12</name>
<cmt>s</cmt>
<desc>Francorchamps Chemin n°12 Route des Blanches Pierres</desc>
<link href="https://chemins.be/francorchamps/chemin/12"/><trkseg>
<trkpt lat="50.472854" lon="5.987053"><time>2026-05-02T17:09:14Z</time></trkpt>
<trkpt lat="50.470858" lon="5.986201"><time>2026-05-02T17:19:14Z</time></trkpt>
</trkseg></trk>
<trk>
<name>lsafc12</name>
<cmt>r</cmt>
<desc>Francorchamps Chemin n°12 Route des Blanches Pierres</desc>
<link href="https://chemins.be/francorchamps/chemin/12"/><trkseg>
<trkpt lat="50.470858" lon="5.986201"><time>2026-05-02T17:19:14Z</time></trkpt>
<trkpt lat="50.470530" lon="5.986973"><time>2026-05-02T17:29:14Z</time></trkpt>
<trkpt lat="50.470175" lon="5.986973"><time>2026-05-02T17:39:14Z</time></trkpt>
<trkpt lat="50.469606" lon="5.986054"><time>2026-05-02T17:49:14Z</time></trkpt>
<trkpt lat="50.468786" lon="5.983953"><time>2026-05-02T17:59:14Z</time></trkpt>
</trkseg></trk>
<trk>
<name>lsafc12</name>
<cmt>q</cmt>
<desc>Francorchamps Chemin n°12 Route des Blanches Pierres</desc>
<link href="https://chemins.be/francorchamps/chemin/12"/><trkseg>
<trkpt lat="50.468786" lon="5.983953"><time>2026-05-02T17:59:14Z</time></trkpt>
<trkpt lat="50.468089" lon="5.982279"><time>2026-05-02T18:09:14Z</time></trkpt>
</trkseg>
</trk>
<trk>
<name>lsafc15</name>
<cmt>v</cmt>
<desc>Francorchamps Chemin n°15 </desc>
<link href="https://chemins.be/francorchamps/chemin/15"/><trkseg>
<trkpt lat="50.463059" lon="5.980567"><time>2026-05-02T16:09:14Z</time></trkpt>
<trkpt lat="50.463104" lon="5.980946"><time>2026-05-02T16:19:14Z</time></trkpt>
<trkpt lat="50.463225" lon="5.981411"><time>2026-05-02T16:29:14Z</time></trkpt>
</trkseg>
</trk>
<trk>
<name>lsafc16</name>
<cmt>v</cmt>
<desc>Francorchamps Chemin n°16 Route du Crisnîre</desc>
<link href="https://chemins.be/francorchamps/chemin/16"/><trkseg>
<trkpt lat="50.459455" lon="5.984108"><time>2026-05-02T16:09:14Z</time></trkpt>
<trkpt lat="50.458259" lon="5.981772"><time>2026-05-02T16:19:14Z</time></trkpt>
<trkpt lat="50.458364" lon="5.981504"><time>2026-05-02T16:29:14Z</time></trkpt>
<trkpt lat="50.459487" lon="5.981486"><time>2026-05-02T16:39:14Z</time></trkpt>
<trkpt lat="50.460381" lon="5.980749"><time>2026-05-02T16:49:14Z</time></trkpt>
<trkpt lat="50.460622" lon="5.980446"><time>2026-05-02T16:59:14Z</time></trkpt>
<trkpt lat="50.460800" lon="5.980534"><time>2026-05-02T17:09:14Z</time></trkpt>
<trkpt lat="50.461004" lon="5.980327"><time>2026-05-02T17:19:14Z</time></trkpt>
<trkpt lat="50.461747" lon="5.979537"><time>2026-05-02T17:29:14Z</time></trkpt>
<trkpt lat="50.462685" lon="5.979272"><time>2026-05-02T17:39:14Z</time></trkpt>
<trkpt lat="50.462943" lon="5.979076"><time>2026-05-02T17:49:14Z</time></trkpt>
</trkseg>
</trk>
<trk>
<name>lsafc17</name>
<cmt>v</cmt>
<desc>Francorchamps Chemin n°17 </desc>
<link href="https://chemins.be/francorchamps/chemin/17"/><trkseg>
<trkpt lat="50.460612" lon="5.980422"><time>2026-05-02T16:09:14Z</time></trkpt>
<trkpt lat="50.459803" lon="5.979327"><time>2026-05-02T16:19:14Z</time></trkpt>
<trkpt lat="50.459060" lon="5.979062"><time>2026-05-02T16:29:14Z</time></trkpt>
<trkpt lat="50.458609" lon="5.978512"><time>2026-05-02T16:39:14Z</time></trkpt>
<trkpt lat="50.457469" lon="5.977050"><time>2026-05-02T16:49:14Z</time></trkpt>
<trkpt lat="50.456740" lon="5.977082"><time>2026-05-02T16:59:14Z</time></trkpt>
</trkseg>
</trk>
<trk>
<name>lsafc18</name>
<cmt>d</cmt>
<desc>Francorchamps Chemin n°18 </desc>
<link href="https://chemins.be/francorchamps/chemin/18"/><trkseg>
<trkpt lat="50.452837" lon="5.975515"><time>2026-05-02T16:09:14Z</time></trkpt>
<trkpt lat="50.450948" lon="5.975408"><time>2026-05-02T16:19:14Z</time></trkpt>
</trkseg></trk>
<trk>
<name>lsafc18</name>
<cmt>q</cmt>
<desc>Francorchamps Chemin n°18 </desc>
<link href="https://chemins.be/francorchamps/chemin/18"/><trkseg>
<trkpt lat="50.450948" lon="5.975408"><time>2026-05-02T16:19:14Z</time></trkpt>
<trkpt lat="50.450465" lon="5.975892"><time>2026-05-02T16:29:14Z</time></trkpt>
</trkseg></trk>
<trk>
<name>lsafc18</name>
<cmt>v</cmt>
<desc>Francorchamps Chemin n°18 </desc>
<link href="https://chemins.be/francorchamps/chemin/18"/><trkseg>
<trkpt lat="50.450465" lon="5.975892"><time>2026-05-02T16:29:14Z</time></trkpt>
<trkpt lat="50.449876" lon="5.975661"><time>2026-05-02T16:39:14Z</time></trkpt>
<trkpt lat="50.449348" lon="5.975600"><time>2026-05-02T16:49:14Z</time></trkpt>
<trkpt lat="50.448030" lon="5.975988"><time>2026-05-02T16:59:14Z</time></trkpt>
</trkseg>
</trk>
<trk>
<name>lsafc19</name>
<cmt>v</cmt>
<desc>Francorchamps Chemin n°19 </desc>
<link href="https://chemins.be/francorchamps/chemin/19"/><trkseg>
<trkpt lat="50.457443" lon="5.974429"><time>2026-05-02T16:09:14Z</time></trkpt>
<trkpt lat="50.456828" lon="5.975282"><time>2026-05-02T16:19:14Z</time></trkpt>
<trkpt lat="50.456732" lon="5.977053"><time>2026-05-02T16:29:14Z</time></trkpt>
<trkpt lat="50.455919" lon="5.977927"><time>2026-05-02T16:39:14Z</time></trkpt>
<trkpt lat="50.455770" lon="5.978331"><time>2026-05-02T16:49:14Z</time></trkpt>
<trkpt lat="50.454776" lon="5.979987"><time>2026-05-02T16:59:14Z</time></trkpt>
<trkpt lat="50.453941" lon="5.981156"><time>2026-05-02T17:09:14Z</time></trkpt>
<trkpt lat="50.453805" lon="5.981278"><time>2026-05-02T17:19:14Z</time></trkpt>
<trkpt lat="50.453792" lon="5.982165"><time>2026-05-02T17:29:14Z</time></trkpt>
<trkpt lat="50.454690" lon="5.986816"><time>2026-05-02T17:39:14Z</time></trkpt>
<trkpt lat="50.454344" lon="5.988424"><time>2026-05-02T17:49:14Z</time></trkpt>
<trkpt lat="50.454531" lon="5.990444"><time>2026-05-02T17:59:14Z</time></trkpt>
<trkpt lat="50.454792" lon="5.991129"><time>2026-05-02T18:09:14Z</time></trkpt>
<trkpt lat="50.454317" lon="5.993592"><time>2026-05-02T18:19:14Z</time></trkpt>
<trkpt lat="50.453732" lon="5.995516"><time>2026-05-02T18:29:14Z</time></trkpt>
<trkpt lat="50.453169" lon="5.997201"><time>2026-05-02T18:39:14Z</time></trkpt>
<trkpt lat="50.453216" lon="5.998343"><time>2026-05-02T18:49:14Z</time></trkpt>
<trkpt lat="50.453022" lon="5.998745"><time>2026-05-02T18:59:14Z</time></trkpt>
<trkpt lat="50.453151" lon="5.999749"><time>2026-05-02T19:09:14Z</time></trkpt>
</trkseg>
</trk>
<trk>
<name>lsafc2</name>
<cmt>v</cmt>
<desc>Francorchamps Chemin n°2 </desc>
<link href="https://chemins.be/francorchamps/chemin/2"/><trkseg>
<trkpt lat="50.465126" lon="5.928285"><time>2026-05-02T16:09:14Z</time></trkpt>
<trkpt lat="50.461476" lon="5.927555"><time>2026-05-02T16:19:14Z</time></trkpt>
</trkseg>
</trk>
<trk>
<name>lsafc20</name>
<cmt>d</cmt>
<desc>Francorchamps Chemin n°20 Route du Circuit</desc>
<link href="https://chemins.be/francorchamps/chemin/20"/><trkseg>
<trkpt lat="50.449674" lon="5.962413"><time>2026-05-02T16:09:14Z</time></trkpt>
<trkpt lat="50.449467" lon="5.963763"><time>2026-05-02T16:19:14Z</time></trkpt>
</trkseg></trk>
<trk>
<name>lsafc20</name>
<cmt>r</cmt>
<desc>Francorchamps Chemin n°20 Route du Circuit</desc>
<link href="https://chemins.be/francorchamps/chemin/20"/><trkseg>
<trkpt lat="50.449467" lon="5.963763"><time>2026-05-02T16:19:14Z</time></trkpt>
<trkpt lat="50.448487" lon="5.967110"><time>2026-05-02T16:29:14Z</time></trkpt>
<trkpt lat="50.449125" lon="5.969181"><time>2026-05-02T16:39:14Z</time></trkpt>
<trkpt lat="50.449248" lon="5.969778"><time>2026-05-02T16:49:14Z</time></trkpt>
<trkpt lat="50.449081" lon="5.971563"><time>2026-05-02T16:59:14Z</time></trkpt>
<trkpt lat="50.448428" lon="5.972915"><time>2026-05-02T17:09:14Z</time></trkpt>
</trkseg></trk>
<trk>
<name>lsafc20</name>
<cmt>q</cmt>
<desc>Francorchamps Chemin n°20 Route du Circuit</desc>
<link href="https://chemins.be/francorchamps/chemin/20"/><trkseg>
<trkpt lat="50.448428" lon="5.972915"><time>2026-05-02T17:09:14Z</time></trkpt>
<trkpt lat="50.448201" lon="5.974013"><time>2026-05-02T17:19:14Z</time></trkpt>
<trkpt lat="50.447539" lon="5.974803"><time>2026-05-02T17:29:14Z</time></trkpt>
<trkpt lat="50.447708" lon="5.975554"><time>2026-05-02T17:39:14Z</time></trkpt>
<trkpt lat="50.447803" lon="5.975581"><time>2026-05-02T17:49:14Z</time></trkpt>
<trkpt lat="50.447940" lon="5.975988"><time>2026-05-02T17:59:14Z</time></trkpt>
</trkseg>
</trk>
<trk>
<name>lsafc21</name>
<cmt>v</cmt>
<desc>Francorchamps Chemin n°21 </desc>
<link href="https://chemins.be/francorchamps/chemin/21"/><trkseg>
<trkpt lat="50.450470" lon="5.954622"><time>2026-05-02T16:09:14Z</time></trkpt>
<trkpt lat="50.449532" lon="5.956897"><time>2026-05-02T16:19:14Z</time></trkpt>
<trkpt lat="50.447727" lon="5.958407"><time>2026-05-02T16:29:14Z</time></trkpt>
<trkpt lat="50.447263" lon="5.959531"><time>2026-05-02T16:39:14Z</time></trkpt>
</trkseg></trk>
<trk>
<name>lsafc21</name>
<cmt>r</cmt>
<desc>Francorchamps Chemin n°21 </desc>
<link href="https://chemins.be/francorchamps/chemin/21"/><trkseg>
<trkpt lat="50.447263" lon="5.959531"><time>2026-05-02T16:39:14Z</time></trkpt>
<trkpt lat="50.447204" lon="5.959942"><time>2026-05-02T16:49:14Z</time></trkpt>
<trkpt lat="50.446406" lon="5.962310"><time>2026-05-02T16:59:14Z</time></trkpt>
</trkseg></trk>
<trk>
<name>lsafc21</name>
<cmt>d</cmt>
<desc>Francorchamps Chemin n°21 </desc>
<link href="https://chemins.be/francorchamps/chemin/21"/><trkseg>
<trkpt lat="50.446406" lon="5.962310"><time>2026-05-02T16:59:14Z</time></trkpt>
<trkpt lat="50.445914" lon="5.963213"><time>2026-05-02T17:09:14Z</time></trkpt>
<trkpt lat="50.445855" lon="5.963585"><time>2026-05-02T17:19:14Z</time></trkpt>
</trkseg></trk>
<trk>
<name>lsafc21</name>
<cmt>q</cmt>
<desc>Francorchamps Chemin n°21 </desc>
<link href="https://chemins.be/francorchamps/chemin/21"/><trkseg>
<trkpt lat="50.445855" lon="5.963585"><time>2026-05-02T17:19:14Z</time></trkpt>
<trkpt lat="50.445907" lon="5.964364"><time>2026-05-02T17:29:14Z</time></trkpt>
</trkseg>
</trk>
<trk>
<name>lsafc22</name>
<cmt>v</cmt>
<desc>Francorchamps Chemin n°22 </desc>
<link href="https://chemins.be/francorchamps/chemin/22"/><trkseg>
<trkpt lat="50.464089" lon="5.925606"><time>2026-05-02T16:09:14Z</time></trkpt>
<trkpt lat="50.464798" lon="5.928203"><time>2026-05-02T16:19:14Z</time></trkpt>
</trkseg>
</trk>
<trk>
<name>lsafc22a</name>
<cmt>v</cmt>
<desc>Francorchamps Chemin n°22 partie a </desc>
<link href="https://chemins.be/francorchamps/chemin/22a"/><trkseg>
<trkpt lat="50.465028" lon="5.929168"><time>2026-05-02T16:09:14Z</time></trkpt>
<trkpt lat="50.472079" lon="5.940978"><time>2026-05-02T16:19:14Z</time></trkpt>
<trkpt lat="50.472953" lon="5.943983"><time>2026-05-02T16:29:14Z</time></trkpt>
<trkpt lat="50.475530" lon="5.952145"><time>2026-05-02T16:39:14Z</time></trkpt>
<trkpt lat="50.478429" lon="5.961229"><time>2026-05-02T16:49:14Z</time></trkpt>
</trkseg></trk>
<trk>
<name>lsafc22a</name>
<cmt>s</cmt>
<desc>Francorchamps Chemin n°22 partie a </desc>
<link href="https://chemins.be/francorchamps/chemin/22a"/><trkseg>
<trkpt lat="50.478429" lon="5.961229"><time>2026-05-02T16:49:14Z</time></trkpt>
<trkpt lat="50.478944" lon="5.962660"><time>2026-05-02T16:59:14Z</time></trkpt>
</trkseg></trk>
<trk>
<name>lsafc22a</name>
<cmt>d</cmt>
<desc>Francorchamps Chemin n°22 partie a </desc>
<link href="https://chemins.be/francorchamps/chemin/22a"/><trkseg>
<trkpt lat="50.478944" lon="5.962660"><time>2026-05-02T16:59:14Z</time></trkpt>
<trkpt lat="50.479593" lon="5.964753"><time>2026-05-02T17:09:14Z</time></trkpt>
<trkpt lat="50.479853" lon="5.965631"><time>2026-05-02T17:19:14Z</time></trkpt>
</trkseg></trk>
<trk>
<name>lsafc22a</name>
<cmt>v</cmt>
<desc>Francorchamps Chemin n°22 partie a </desc>
<link href="https://chemins.be/francorchamps/chemin/22a"/><trkseg>
<trkpt lat="50.479853" lon="5.965631"><time>2026-05-02T17:19:14Z</time></trkpt>
<trkpt lat="50.480074" lon="5.966304"><time>2026-05-02T17:29:14Z</time></trkpt>
<trkpt lat="50.481401" lon="5.968133"><time>2026-05-02T17:39:14Z</time></trkpt>
<trkpt lat="50.481581" lon="5.967858"><time>2026-05-02T17:49:14Z</time></trkpt>
<trkpt lat="50.483045" lon="5.967927"><time>2026-05-02T17:59:14Z</time></trkpt>
<trkpt lat="50.483645" lon="5.968611"><time>2026-05-02T18:09:14Z</time></trkpt>
</trkseg></trk>
<trk>
<name>lsafc22a</name>
<cmt>q</cmt>
<desc>Francorchamps Chemin n°22 partie a </desc>
<link href="https://chemins.be/francorchamps/chemin/22a"/><trkseg>
<trkpt lat="50.483645" lon="5.968611"><time>2026-05-02T18:09:14Z</time></trkpt>
<trkpt lat="50.484339" lon="5.969403"><time>2026-05-02T18:19:14Z</time></trkpt>
<trkpt lat="50.485213" lon="5.970424"><time>2026-05-02T18:29:14Z</time></trkpt>
</trkseg>
</trk>
<trk>
<name>lsafc22b</name>
<cmt>r</cmt>
<desc>Francorchamps Chemin n°22 partie b </desc>
<link href="https://chemins.be/francorchamps/chemin/22b"/><trkseg>
<trkpt lat="50.486207" lon="5.980318"><time>2026-05-02T16:09:14Z</time></trkpt>
<trkpt lat="50.487135" lon="5.987463"><time>2026-05-02T16:19:14Z</time></trkpt>
<trkpt lat="50.486675" lon="5.990605"><time>2026-05-02T16:29:14Z</time></trkpt>
<trkpt lat="50.486859" lon="5.991109"><time>2026-05-02T16:39:14Z</time></trkpt>
<trkpt lat="50.486798" lon="5.991804"><time>2026-05-02T16:49:14Z</time></trkpt>
<trkpt lat="50.487449" lon="5.993407"><time>2026-05-02T16:59:14Z</time></trkpt>
<trkpt lat="50.488118" lon="5.993310"><time>2026-05-02T17:09:14Z</time></trkpt>
</trkseg></trk>
<trk>
<name>lsafc22b</name>
<cmt>v</cmt>
<desc>Francorchamps Chemin n°22 partie b </desc>
<link href="https://chemins.be/francorchamps/chemin/22b"/><trkseg>
<trkpt lat="50.488118" lon="5.993310"><time>2026-05-02T17:09:14Z</time></trkpt>
<trkpt lat="50.489229" lon="5.994639"><time>2026-05-02T17:19:14Z</time></trkpt>
<trkpt lat="50.491486" lon="5.998027"><time>2026-05-02T17:29:14Z</time></trkpt>
<trkpt lat="50.492842" lon="5.998617"><time>2026-05-02T17:39:14Z</time></trkpt>
<trkpt lat="50.495308" lon="6.001232"><time>2026-05-02T17:49:14Z</time></trkpt>
<trkpt lat="50.496149" lon="6.004844"><time>2026-05-02T17:59:14Z</time></trkpt>
</trkseg>
</trk>
<trk>
<name>lsafc24</name>
<cmt>v</cmt>
<desc>Francorchamps Chemin n°24 </desc>
<link href="https://chemins.be/francorchamps/chemin/24"/><trkseg>
<trkpt lat="50.447571" lon="5.951639"><time>2026-05-02T16:09:14Z</time></trkpt>
<trkpt lat="50.446286" lon="5.950330"><time>2026-05-02T16:19:14Z</time></trkpt>
<trkpt lat="50.445316" lon="5.949655"><time>2026-05-02T16:29:14Z</time></trkpt>
<trkpt lat="50.444165" lon="5.948402"><time>2026-05-02T16:39:14Z</time></trkpt>
<trkpt lat="50.442973" lon="5.947544"><time>2026-05-02T16:49:14Z</time></trkpt>
<trkpt lat="50.442898" lon="5.947321"><time>2026-05-02T16:59:14Z</time></trkpt>
</trkseg>
</trk>
<trk>
<name>lsafc25</name>
<cmt>q</cmt>
<desc>Francorchamps Chemin n°25 </desc>
<link href="https://chemins.be/francorchamps/chemin/25"/><trkseg>
<trkpt lat="50.447366" lon="5.951429"><time>2026-05-02T16:09:14Z</time></trkpt>
<trkpt lat="50.447352" lon="5.949527"><time>2026-05-02T16:19:14Z</time></trkpt>
</trkseg>
</trk>
<trk>
<name>lsafc26</name>
<cmt>q</cmt>
<desc>Francorchamps Chemin n°26 </desc>
<link href="https://chemins.be/francorchamps/chemin/26"/><trkseg>
<trkpt lat="50.448911" lon="5.954486"><time>2026-05-02T16:09:14Z</time></trkpt>
<trkpt lat="50.447754" lon="5.955244"><time>2026-05-02T16:19:14Z</time></trkpt>
<trkpt lat="50.445805" lon="5.955387"><time>2026-05-02T16:29:14Z</time></trkpt>
</trkseg>
</trk>
<trk>
<name>lsafc27</name>
<cmt>v</cmt>
<desc>Francorchamps Chemin n°27 </desc>
<link href="https://chemins.be/francorchamps/chemin/27"/><trkseg>
<trkpt lat="50.448665" lon="5.953428"><time>2026-05-02T16:09:14Z</time></trkpt>
<trkpt lat="50.448346" lon="5.954014"><time>2026-05-02T16:19:14Z</time></trkpt>
<trkpt lat="50.446197" lon="5.953542"><time>2026-05-02T16:29:14Z</time></trkpt>
<trkpt lat="50.445502" lon="5.953508"><time>2026-05-02T16:39:14Z</time></trkpt>
</trkseg>
</trk>
<trk>
<name>lsafc28</name>
<cmt>v</cmt>
<desc>Francorchamps Chemin n°28 </desc>
<link href="https://chemins.be/francorchamps/chemin/28"/><trkseg>
<trkpt lat="50.447636" lon="5.951736"><time>2026-05-02T16:09:14Z</time></trkpt>
<trkpt lat="50.447064" lon="5.952077"><time>2026-05-02T16:19:14Z</time></trkpt>
<trkpt lat="50.446878" lon="5.952167"><time>2026-05-02T16:29:14Z</time></trkpt>
<trkpt lat="50.446689" lon="5.952214"><time>2026-05-02T16:39:14Z</time></trkpt>
<trkpt lat="50.446513" lon="5.952229"><time>2026-05-02T16:49:14Z</time></trkpt>
<trkpt lat="50.446319" lon="5.952216"><time>2026-05-02T16:59:14Z</time></trkpt>
<trkpt lat="50.445981" lon="5.952097"><time>2026-05-02T17:09:14Z</time></trkpt>
<trkpt lat="50.445648" lon="5.951848"><time>2026-05-02T17:19:14Z</time></trkpt>
<trkpt lat="50.444435" lon="5.950767"><time>2026-05-02T17:29:14Z</time></trkpt>
</trkseg>
</trk>
<trk>
<name>lsafc29</name>
<cmt>q</cmt>
<desc>Francorchamps Chemin n°29 </desc>
<link href="https://chemins.be/francorchamps/chemin/29"/><trkseg>
<trkpt lat="50.445611" lon="5.951784"><time>2026-05-02T16:09:14Z</time></trkpt>
<trkpt lat="50.445110" lon="5.952192"><time>2026-05-02T16:19:14Z</time></trkpt>
</trkseg>
</trk>
<trk>
<name>lsafc3</name>
<cmt>v</cmt>
<desc>Francorchamps Chemin n°3 </desc>
<link href="https://chemins.be/francorchamps/chemin/3"/><trkseg>
<trkpt lat="50.484312" lon="5.986009"><time>2026-05-02T16:09:14Z</time></trkpt>
<trkpt lat="50.483652" lon="5.987786"><time>2026-05-02T16:19:14Z</time></trkpt>
</trkseg></trk>
<trk>
<name>lsafc3</name>
<cmt>s</cmt>
<desc>Francorchamps Chemin n°3 </desc>
<link href="https://chemins.be/francorchamps/chemin/3"/><trkseg>
<trkpt lat="50.483652" lon="5.987786"><time>2026-05-02T16:19:14Z</time></trkpt>
<trkpt lat="50.483247" lon="5.988488"><time>2026-05-02T16:29:14Z</time></trkpt>
</trkseg></trk>
<trk>
<name>lsafc3</name>
<cmt>r</cmt>
<desc>Francorchamps Chemin n°3 </desc>
<link href="https://chemins.be/francorchamps/chemin/3"/><trkseg>
<trkpt lat="50.483247" lon="5.988488"><time>2026-05-02T16:29:14Z</time></trkpt>
<trkpt lat="50.481964" lon="5.990408"><time>2026-05-02T16:39:14Z</time></trkpt>
<trkpt lat="50.480776" lon="5.994217"><time>2026-05-02T16:49:14Z</time></trkpt>
<trkpt lat="50.480563" lon="5.994142"><time>2026-05-02T16:59:14Z</time></trkpt>
</trkseg></trk>
<trk>
<name>lsafc3</name>
<cmt>v</cmt>
<desc>Francorchamps Chemin n°3 </desc>
<link href="https://chemins.be/francorchamps/chemin/3"/><trkseg>
<trkpt lat="50.480563" lon="5.994142"><time>2026-05-02T16:59:14Z</time></trkpt>
<trkpt lat="50.479749" lon="5.996197"><time>2026-05-02T17:09:14Z</time></trkpt>
<trkpt lat="50.479060" lon="5.996589"><time>2026-05-02T17:19:14Z</time></trkpt>
<trkpt lat="50.477889" lon="5.997571"><time>2026-05-02T17:29:14Z</time></trkpt>
<trkpt lat="50.476365" lon="5.999841"><time>2026-05-02T17:39:14Z</time></trkpt>
<trkpt lat="50.475281" lon="6.001442"><time>2026-05-02T17:49:14Z</time></trkpt>
<trkpt lat="50.474711" lon="6.001708"><time>2026-05-02T17:59:14Z</time></trkpt>
<trkpt lat="50.472984" lon="6.002514"><time>2026-05-02T18:09:14Z</time></trkpt>
<trkpt lat="50.470351" lon="6.003725"><time>2026-05-02T18:19:14Z</time></trkpt>
<trkpt lat="50.469032" lon="6.004275"><time>2026-05-02T18:29:14Z</time></trkpt>
</trkseg></trk>
<trk>
<name>lsafc3</name>
<cmt>q</cmt>
<desc>Francorchamps Chemin n°3 </desc>
<link href="https://chemins.be/francorchamps/chemin/3"/><trkseg>
<trkpt lat="50.469032" lon="6.004275"><time>2026-05-02T18:29:14Z</time></trkpt>
<trkpt lat="50.467390" lon="6.004961"><time>2026-05-02T18:39:14Z</time></trkpt>
<trkpt lat="50.466010" lon="6.005313"><time>2026-05-02T18:49:14Z</time></trkpt>
<trkpt lat="50.464497" lon="6.006085"><time>2026-05-02T18:59:14Z</time></trkpt>
<trkpt lat="50.461424" lon="6.008287"><time>2026-05-02T19:09:14Z</time></trkpt>
<trkpt lat="50.456864" lon="6.012029"><time>2026-05-02T19:19:14Z</time></trkpt>
<trkpt lat="50.452932" lon="6.014329"><time>2026-05-02T19:29:14Z</time></trkpt>
</trkseg></trk>
<trk>
<name>lsafc3</name>
<cmt>v</cmt>
<desc>Francorchamps Chemin n°3 </desc>
<link href="https://chemins.be/francorchamps/chemin/3"/><trkseg>
<trkpt lat="50.452932" lon="6.014329"><time>2026-05-02T19:29:14Z</time></trkpt>
<trkpt lat="50.451481" lon="6.014956"><time>2026-05-02T19:39:14Z</time></trkpt>
<trkpt lat="50.449959" lon="6.016998"><time>2026-05-02T19:49:14Z</time></trkpt>
<trkpt lat="50.450084" lon="6.017226"><time>2026-05-02T19:59:14Z</time></trkpt>
<trkpt lat="50.450287" lon="6.017247"><time>2026-05-02T20:09:14Z</time></trkpt>
<trkpt lat="50.449826" lon="6.018392"><time>2026-05-02T20:19:14Z</time></trkpt>
<trkpt lat="50.449448" lon="6.019045"><time>2026-05-02T20:29:14Z</time></trkpt>
<trkpt lat="50.449071" lon="6.018985"><time>2026-05-02T20:39:14Z</time></trkpt>
<trkpt lat="50.449027" lon="6.018659"><time>2026-05-02T20:49:14Z</time></trkpt>
<trkpt lat="50.448822" lon="6.019393"><time>2026-05-02T20:59:14Z</time></trkpt>
</trkseg>
</trk>
<trk>
<name>lsafc30</name>
<cmt>q</cmt>
<desc>Francorchamps Chemin n°30 </desc>
<link href="https://chemins.be/francorchamps/chemin/30"/><trkseg>
<trkpt lat="50.443574" lon="5.948431"><time>2026-05-02T16:09:14Z</time></trkpt>
<trkpt lat="50.443822" lon="5.948837"><time>2026-05-02T16:19:14Z</time></trkpt>
</trkseg></trk>
<trk>
<name>lsafc30</name>
<cmt>v</cmt>
<desc>Francorchamps Chemin n°30 </desc>
<link href="https://chemins.be/francorchamps/chemin/30"/><trkseg>
<trkpt lat="50.443822" lon="5.948837"><time>2026-05-02T16:19:14Z</time></trkpt>
<trkpt lat="50.444183" lon="5.949651"><time>2026-05-02T16:29:14Z</time></trkpt>
<trkpt lat="50.444202" lon="5.950195"><time>2026-05-02T16:39:14Z</time></trkpt>
<trkpt lat="50.444280" lon="5.950588"><time>2026-05-02T16:49:14Z</time></trkpt>
<trkpt lat="50.445103" lon="5.952255"><time>2026-05-02T16:59:14Z</time></trkpt>
<trkpt lat="50.445495" lon="5.953499"><time>2026-05-02T17:09:14Z</time></trkpt>
<trkpt lat="50.445825" lon="5.955516"><time>2026-05-02T17:19:14Z</time></trkpt>
</trkseg></trk>
<trk>
<name>lsafc30</name>
<cmt>q</cmt>
<desc>Francorchamps Chemin n°30 </desc>
<link href="https://chemins.be/francorchamps/chemin/30"/><trkseg>
<trkpt lat="50.445825" lon="5.955516"><time>2026-05-02T17:19:14Z</time></trkpt>
<trkpt lat="50.446242" lon="5.957090"><time>2026-05-02T17:29:14Z</time></trkpt>
</trkseg>
</trk>
<trk>
<name>lsafc34</name>
<cmt>v</cmt>
<desc>Francorchamps Chemin n°34 Chemin du Gros Bois</desc>
<link href="https://chemins.be/francorchamps/chemin/34"/><trkseg>
<trkpt lat="50.461591" lon="5.946572"><time>2026-05-02T16:09:14Z</time></trkpt>
<trkpt lat="50.461646" lon="5.946362"><time>2026-05-02T16:19:14Z</time></trkpt>
<trkpt lat="50.461698" lon="5.946112"><time>2026-05-02T16:29:14Z</time></trkpt>
<trkpt lat="50.462105" lon="5.943837"><time>2026-05-02T16:39:14Z</time></trkpt>
<trkpt lat="50.462377" lon="5.942243"><time>2026-05-02T16:49:14Z</time></trkpt>
<trkpt lat="50.462370" lon="5.941927"><time>2026-05-02T16:59:14Z</time></trkpt>
<trkpt lat="50.462337" lon="5.941638"><time>2026-05-02T17:09:14Z</time></trkpt>
<trkpt lat="50.462296" lon="5.941426"><time>2026-05-02T17:19:14Z</time></trkpt>
<trkpt lat="50.462207" lon="5.941165"><time>2026-05-02T17:29:14Z</time></trkpt>
<trkpt lat="50.462153" lon="5.941060"><time>2026-05-02T17:39:14Z</time></trkpt>
<trkpt lat="50.462051" lon="5.940904"><time>2026-05-02T17:49:14Z</time></trkpt>
</trkseg>
</trk>
<trk>
<name>lsafc36</name>
<cmt>r</cmt>
<desc>Francorchamps Chemin n°36 </desc>
<link href="https://chemins.be/francorchamps/chemin/36"/><trkseg>
<trkpt lat="50.463420" lon="5.953521"><time>2026-05-02T16:09:14Z</time></trkpt>
<trkpt lat="50.464553" lon="5.953360"><time>2026-05-02T16:19:14Z</time></trkpt>
</trkseg></trk>
<trk>
<name>lsafc36</name>
<cmt>v</cmt>
<desc>Francorchamps Chemin n°36 </desc>
<link href="https://chemins.be/francorchamps/chemin/36"/><trkseg>
<trkpt lat="50.464553" lon="5.953360"><time>2026-05-02T16:19:14Z</time></trkpt>
<trkpt lat="50.464865" lon="5.953138"><time>2026-05-02T16:29:14Z</time></trkpt>
<trkpt lat="50.466495" lon="5.953281"><time>2026-05-02T16:39:14Z</time></trkpt>
<trkpt lat="50.469101" lon="5.953681"><time>2026-05-02T16:49:14Z</time></trkpt>
<trkpt lat="50.471250" lon="5.952966"><time>2026-05-02T16:59:14Z</time></trkpt>
</trkseg></trk>
<trk>
<name>lsafc36</name>
<cmt>d</cmt>
<desc>Francorchamps Chemin n°36 </desc>
<link href="https://chemins.be/francorchamps/chemin/36"/><trkseg>
<trkpt lat="50.471250" lon="5.952966"><time>2026-05-02T16:59:14Z</time></trkpt>
<trkpt lat="50.472569" lon="5.954105"><time>2026-05-02T17:09:14Z</time></trkpt>
<trkpt lat="50.472961" lon="5.954715"><time>2026-05-02T17:19:14Z</time></trkpt>
</trkseg></trk>
<trk>
<name>lsafc36</name>
<cmt>q</cmt>
<desc>Francorchamps Chemin n°36 </desc>
<link href="https://chemins.be/francorchamps/chemin/36"/><trkseg>
<trkpt lat="50.472961" lon="5.954715"><time>2026-05-02T17:19:14Z</time></trkpt>
<trkpt lat="50.477866" lon="5.962330"><time>2026-05-02T17:29:14Z</time></trkpt>
</trkseg></trk>
<trk>
<name>lsafc36</name>
<cmt>s</cmt>
<desc>Francorchamps Chemin n°36 </desc>
<link href="https://chemins.be/francorchamps/chemin/36"/><trkseg>
<trkpt lat="50.477866" lon="5.962330"><time>2026-05-02T17:29:14Z</time></trkpt>
<trkpt lat="50.478845" lon="5.963849"><time>2026-05-02T17:39:14Z</time></trkpt>
<trkpt lat="50.479345" lon="5.965122"><time>2026-05-02T17:49:14Z</time></trkpt>
</trkseg>
</trk>
<trk>
<name>lsafc37</name>
<cmt>r</cmt>
<desc>Francorchamps Chemin n°37 Chemin du Ris de Loneux</desc>
<link href="https://chemins.be/francorchamps/chemin/37"/><trkseg>
<trkpt lat="50.462778" lon="5.952592"><time>2026-05-02T16:09:14Z</time></trkpt>
<trkpt lat="50.464248" lon="5.951362"><time>2026-05-02T16:19:14Z</time></trkpt>
<trkpt lat="50.465091" lon="5.951319"><time>2026-05-02T16:29:14Z</time></trkpt>
</trkseg>
</trk>
<trk>
<name>lsafc38</name>
<cmt>v</cmt>
<desc>Francorchamps Chemin n°38 </desc>
<link href="https://chemins.be/francorchamps/chemin/38"/><trkseg>
<trkpt lat="50.456682" lon="5.954605"><time>2026-05-02T16:09:14Z</time></trkpt>
<trkpt lat="50.456540" lon="5.956143"><time>2026-05-02T16:19:14Z</time></trkpt>
<trkpt lat="50.456668" lon="5.956300"><time>2026-05-02T16:29:14Z</time></trkpt>
<trkpt lat="50.456569" lon="5.956627"><time>2026-05-02T16:39:14Z</time></trkpt>
</trkseg></trk>
<trk>
<name>lsafc38</name>
<cmt>b</cmt>
<desc>Francorchamps Chemin n°38 </desc>
<link href="https://chemins.be/francorchamps/chemin/38"/><trkseg>
<trkpt lat="50.456569" lon="5.956627"><time>2026-05-02T16:39:14Z</time></trkpt>
<trkpt lat="50.456455" lon="5.957215"><time>2026-05-02T16:49:14Z</time></trkpt>
</trkseg></trk>
<trk>
<name>lsafc38</name>
<cmt>v</cmt>
<desc>Francorchamps Chemin n°38 </desc>
<link href="https://chemins.be/francorchamps/chemin/38"/><trkseg>
<trkpt lat="50.456455" lon="5.957215"><time>2026-05-02T16:49:14Z</time></trkpt>
<trkpt lat="50.456383" lon="5.957942"><time>2026-05-02T16:59:14Z</time></trkpt>
<trkpt lat="50.456406" lon="5.959040"><time>2026-05-02T17:09:14Z</time></trkpt>
<trkpt lat="50.456542" lon="5.959540"><time>2026-05-02T17:19:14Z</time></trkpt>
</trkseg>
</trk>
<trk>
<name>lsafc39</name>
<cmt>s</cmt>
<desc>Francorchamps Chemin n°39 </desc>
<link href="https://chemins.be/francorchamps/chemin/39"/><trkseg>
<trkpt lat="50.479922" lon="5.966054"><time>2026-05-02T16:09:14Z</time></trkpt>
<trkpt lat="50.478333" lon="5.965789"><time>2026-05-02T16:19:14Z</time></trkpt>
<trkpt lat="50.478201" lon="5.966261"><time>2026-05-02T16:29:14Z</time></trkpt>
</trkseg>
</trk>
<trk>
<name>lsafc40</name>
<cmt>v</cmt>
<desc>Francorchamps Chemin n°40 </desc>
<link href="https://chemins.be/francorchamps/chemin/40"/><trkseg>
<trkpt lat="50.481424" lon="5.968114"><time>2026-05-02T16:09:14Z</time></trkpt>
<trkpt lat="50.481640" lon="5.969101"><time>2026-05-02T16:19:14Z</time></trkpt>
<trkpt lat="50.481597" lon="5.969470"><time>2026-05-02T16:29:14Z</time></trkpt>
</trkseg>
</trk>
<trk>
<name>lsafc41</name>
<cmt>v</cmt>
<desc>Francorchamps Chemin n°41 </desc>
<link href="https://chemins.be/francorchamps/chemin/41"/><trkseg>
<trkpt lat="50.480117" lon="5.971333"><time>2026-05-02T16:09:14Z</time></trkpt>
<trkpt lat="50.480775" lon="5.970464"><time>2026-05-02T16:19:14Z</time></trkpt>
</trkseg>
</trk>
<trk>
<name>lsafc42</name>
<cmt>v</cmt>
<desc>Francorchamps Chemin n°42 </desc>
<link href="https://chemins.be/francorchamps/chemin/42"/><trkseg>
<trkpt lat="50.474072" lon="5.965311"><time>2026-05-02T16:09:14Z</time></trkpt>
<trkpt lat="50.474252" lon="5.965929"><time>2026-05-02T16:19:14Z</time></trkpt>
<trkpt lat="50.473658" lon="5.967875"><time>2026-05-02T16:29:14Z</time></trkpt>
</trkseg>
</trk>
<trk>
<name>lsafc43</name>
<cmt>v</cmt>
<desc>Francorchamps Chemin n°43 </desc>
<link href="https://chemins.be/francorchamps/chemin/43"/><trkseg>
<trkpt lat="50.464031" lon="5.965510"><time>2026-05-02T16:09:14Z</time></trkpt>
<trkpt lat="50.465342" lon="5.966920"><time>2026-05-02T16:19:14Z</time></trkpt>
<trkpt lat="50.466164" lon="5.967357"><time>2026-05-02T16:29:14Z</time></trkpt>
<trkpt lat="50.467295" lon="5.968128"><time>2026-05-02T16:39:14Z</time></trkpt>
<trkpt lat="50.467689" lon="5.968916"><time>2026-05-02T16:49:14Z</time></trkpt>
</trkseg>
</trk>
<trk>
<name>lsafc46</name>
<cmt>v</cmt>
<desc>Francorchamps Chemin n°46 </desc>
<link href="https://chemins.be/francorchamps/chemin/46"/><trkseg>
<trkpt lat="50.456317" lon="5.965277"><time>2026-05-02T16:09:14Z</time></trkpt>
<trkpt lat="50.455318" lon="5.964036"><time>2026-05-02T16:19:14Z</time></trkpt>
<trkpt lat="50.455176" lon="5.963596"><time>2026-05-02T16:29:14Z</time></trkpt>
</trkseg>
</trk>
<trk>
<name>lsafc47</name>
<cmt>v</cmt>
<desc>Francorchamps Chemin n°47 </desc>
<link href="https://chemins.be/francorchamps/chemin/47"/><trkseg>
<trkpt lat="50.453706" lon="5.964128"><time>2026-05-02T16:09:14Z</time></trkpt>
<trkpt lat="50.452145" lon="5.962983"><time>2026-05-02T16:19:14Z</time></trkpt>
<trkpt lat="50.451448" lon="5.962991"><time>2026-05-02T16:29:14Z</time></trkpt>
<trkpt lat="50.451216" lon="5.963382"><time>2026-05-02T16:39:14Z</time></trkpt>
<trkpt lat="50.450590" lon="5.964010"><time>2026-05-02T16:49:14Z</time></trkpt>
<trkpt lat="50.450241" lon="5.964514"><time>2026-05-02T16:59:14Z</time></trkpt>
<trkpt lat="50.450050" lon="5.964643"><time>2026-05-02T17:09:14Z</time></trkpt>
</trkseg>
</trk>
<trk>
<name>lsafc49</name>
<cmt>v</cmt>
<desc>Francorchamps Chemin n°49 </desc>
<link href="https://chemins.be/francorchamps/chemin/49"/><trkseg>
<trkpt lat="50.460812" lon="5.969253"><time>2026-05-02T16:09:14Z</time></trkpt>
<trkpt lat="50.460170" lon="5.969085"><time>2026-05-02T16:19:14Z</time></trkpt>
<trkpt lat="50.459657" lon="5.969411"><time>2026-05-02T16:29:14Z</time></trkpt>
<trkpt lat="50.459573" lon="5.969421"><time>2026-05-02T16:39:14Z</time></trkpt>
<trkpt lat="50.459401" lon="5.969308"><time>2026-05-02T16:49:14Z</time></trkpt>
<trkpt lat="50.459289" lon="5.969346"><time>2026-05-02T16:59:14Z</time></trkpt>
<trkpt lat="50.458710" lon="5.969815"><time>2026-05-02T17:09:14Z</time></trkpt>
<trkpt lat="50.458421" lon="5.968914"><time>2026-05-02T17:19:14Z</time></trkpt>
</trkseg>
</trk>
<trk>
<name>lsafc50</name>
<cmt>q</cmt>
<desc>Francorchamps Chemin n°50 </desc>
<link href="https://chemins.be/francorchamps/chemin/50"/><trkseg>
<trkpt lat="50.454218" lon="5.975668"><time>2026-05-02T16:09:14Z</time></trkpt>
<trkpt lat="50.453733" lon="5.975248"><time>2026-05-02T16:19:14Z</time></trkpt>
<trkpt lat="50.451613" lon="5.971262"><time>2026-05-02T16:29:14Z</time></trkpt>
<trkpt lat="50.449335" lon="5.969746"><time>2026-05-02T16:39:14Z</time></trkpt>
</trkseg>
</trk>
<trk>
<name>lsafc51</name>
<cmt>r</cmt>
<desc>Francorchamps Chemin n°51 Chemin des Invités</desc>
<link href="https://chemins.be/francorchamps/chemin/51"/><trkseg>
<trkpt lat="50.448881" lon="5.968586"><time>2026-05-02T16:09:14Z</time></trkpt>
<trkpt lat="50.448521" lon="5.969451"><time>2026-05-02T16:19:14Z</time></trkpt>
</trkseg></trk>
<trk>
<name>lsafc51</name>
<cmt>d</cmt>
<desc>Francorchamps Chemin n°51 Chemin des Invités</desc>
<link href="https://chemins.be/francorchamps/chemin/51"/><trkseg>
<trkpt lat="50.448521" lon="5.969451"><time>2026-05-02T16:19:14Z</time></trkpt>
<trkpt lat="50.448125" lon="5.972813"><time>2026-05-02T16:29:14Z</time></trkpt>
</trkseg></trk>
<trk>
<name>lsafc51</name>
<cmt>q</cmt>
<desc>Francorchamps Chemin n°51 Chemin des Invités</desc>
<link href="https://chemins.be/francorchamps/chemin/51"/><trkseg>
<trkpt lat="50.448125" lon="5.972813"><time>2026-05-02T16:29:14Z</time></trkpt>
<trkpt lat="50.447712" lon="5.974542"><time>2026-05-02T16:39:14Z</time></trkpt>
<trkpt lat="50.447547" lon="5.974825"><time>2026-05-02T16:49:14Z</time></trkpt>
<trkpt lat="50.447715" lon="5.975544"><time>2026-05-02T16:59:14Z</time></trkpt>
<trkpt lat="50.447806" lon="5.975581"><time>2026-05-02T17:09:14Z</time></trkpt>
<trkpt lat="50.447984" lon="5.975981"><time>2026-05-02T17:19:14Z</time></trkpt>
<trkpt lat="50.447474" lon="5.976906"><time>2026-05-02T17:29:14Z</time></trkpt>
</trkseg></trk>
<trk>
<name>lsafc51</name>
<cmt>v</cmt>
<desc>Francorchamps Chemin n°51 Chemin des Invités</desc>
<link href="https://chemins.be/francorchamps/chemin/51"/><trkseg>
<trkpt lat="50.447474" lon="5.976906"><time>2026-05-02T17:29:14Z</time></trkpt>
<trkpt lat="50.446832" lon="5.978558"><time>2026-05-02T17:39:14Z</time></trkpt>
<trkpt lat="50.446846" lon="5.981433"><time>2026-05-02T17:49:14Z</time></trkpt>
<trkpt lat="50.446067" lon="5.985510"><time>2026-05-02T17:59:14Z</time></trkpt>
<trkpt lat="50.446304" lon="5.987431"><time>2026-05-02T18:09:14Z</time></trkpt>
<trkpt lat="50.446270" lon="5.988219"><time>2026-05-02T18:19:14Z</time></trkpt>
</trkseg>
</trk>
<trk>
<name>lsafc53</name>
<cmt>v</cmt>
<desc>Francorchamps Chemin n°53 Route de Cronchamps</desc>
<link href="https://chemins.be/francorchamps/chemin/53"/><trkseg>
<trkpt lat="50.462680" lon="5.985044"><time>2026-05-02T16:09:14Z</time></trkpt>
<trkpt lat="50.462575" lon="5.986467"><time>2026-05-02T16:19:14Z</time></trkpt>
<trkpt lat="50.461801" lon="5.988048"><time>2026-05-02T16:29:14Z</time></trkpt>
<trkpt lat="50.462339" lon="5.989035"><time>2026-05-02T16:39:14Z</time></trkpt>
<trkpt lat="50.462575" lon="5.989349"><time>2026-05-02T16:49:14Z</time></trkpt>
<trkpt lat="50.462355" lon="5.991261"><time>2026-05-02T16:59:14Z</time></trkpt>
<trkpt lat="50.462482" lon="5.994344"><time>2026-05-02T17:09:14Z</time></trkpt>
</trkseg></trk>
<trk>
<name>lsafc53</name>
<cmt>s</cmt>
<desc>Francorchamps Chemin n°53 Route de Cronchamps</desc>
<link href="https://chemins.be/francorchamps/chemin/53"/><trkseg>
<trkpt lat="50.462482" lon="5.994344"><time>2026-05-02T17:09:14Z</time></trkpt>
<trkpt lat="50.462633" lon="5.996354"><time>2026-05-02T17:19:14Z</time></trkpt>
</trkseg></trk>
<trk>
<name>lsafc53</name>
<cmt>d</cmt>
<desc>Francorchamps Chemin n°53 Route de Cronchamps</desc>
<link href="https://chemins.be/francorchamps/chemin/53"/><trkseg>
<trkpt lat="50.462633" lon="5.996354"><time>2026-05-02T17:19:14Z</time></trkpt>
<trkpt lat="50.462583" lon="5.998564"><time>2026-05-02T17:29:14Z</time></trkpt>
<trkpt lat="50.462792" lon="5.999422"><time>2026-05-02T17:39:14Z</time></trkpt>
<trkpt lat="50.463639" lon="6.001811"><time>2026-05-02T17:49:14Z</time></trkpt>
<trkpt lat="50.464313" lon="6.004858"><time>2026-05-02T17:59:14Z</time></trkpt>
</trkseg></trk>
<trk>
<name>lsafc53</name>
<cmt>v</cmt>
<desc>Francorchamps Chemin n°53 Route de Cronchamps</desc>
<link href="https://chemins.be/francorchamps/chemin/53"/><trkseg>
<trkpt lat="50.464313" lon="6.004858"><time>2026-05-02T17:59:14Z</time></trkpt>
<trkpt lat="50.464477" lon="6.006060"><time>2026-05-02T18:09:14Z</time></trkpt>
<trkpt lat="50.465278" lon="6.008942"><time>2026-05-02T18:19:14Z</time></trkpt>
<trkpt lat="50.465237" lon="6.012461"><time>2026-05-02T18:29:14Z</time></trkpt>
</trkseg></trk>
<trk>
<name>lsafc53</name>
<cmt>d</cmt>
<desc>Francorchamps Chemin n°53 Route de Cronchamps</desc>
<link href="https://chemins.be/francorchamps/chemin/53"/><trkseg>
<trkpt lat="50.465237" lon="6.012461"><time>2026-05-02T18:29:14Z</time></trkpt>
<trkpt lat="50.464909" lon="6.014235"><time>2026-05-02T18:39:14Z</time></trkpt>
</trkseg>
</trk>
<trk>
<name>lsafc54</name>
<cmt>d</cmt>
<desc>Francorchamps Chemin n°54 </desc>
<link href="https://chemins.be/francorchamps/chemin/54"/><trkseg>
<trkpt lat="50.464228" lon="5.984607"><time>2026-05-02T16:09:14Z</time></trkpt>
<trkpt lat="50.463969" lon="5.986524"><time>2026-05-02T16:19:14Z</time></trkpt>
<trkpt lat="50.462568" lon="5.988927"><time>2026-05-02T16:29:14Z</time></trkpt>
<trkpt lat="50.462657" lon="5.989428"><time>2026-05-02T16:39:14Z</time></trkpt>
<trkpt lat="50.462578" lon="5.990238"><time>2026-05-02T16:49:14Z</time></trkpt>
<trkpt lat="50.463134" lon="5.992606"><time>2026-05-02T16:59:14Z</time></trkpt>
<trkpt lat="50.463193" lon="5.993564"><time>2026-05-02T17:09:14Z</time></trkpt>
</trkseg></trk>
<trk>
<name>lsafc54</name>
<cmt>s</cmt>
<desc>Francorchamps Chemin n°54 </desc>
<link href="https://chemins.be/francorchamps/chemin/54"/><trkseg>
<trkpt lat="50.463193" lon="5.993564"><time>2026-05-02T17:09:14Z</time></trkpt>
<trkpt lat="50.463607" lon="5.995045"><time>2026-05-02T17:19:14Z</time></trkpt>
</trkseg></trk>
<trk>
<name>lsafc54</name>
<cmt>v</cmt>
<desc>Francorchamps Chemin n°54 </desc>
<link href="https://chemins.be/francorchamps/chemin/54"/><trkseg>
<trkpt lat="50.463607" lon="5.995045"><time>2026-05-02T17:19:14Z</time></trkpt>
<trkpt lat="50.464122" lon="5.997205"><time>2026-05-02T17:29:14Z</time></trkpt>
<trkpt lat="50.465082" lon="5.999212"><time>2026-05-02T17:39:14Z</time></trkpt>
<trkpt lat="50.466712" lon="6.002619"><time>2026-05-02T17:49:14Z</time></trkpt>
<trkpt lat="50.467809" lon="6.004429"><time>2026-05-02T17:59:14Z</time></trkpt>
</trkseg>
</trk>
<trk>
<name>lsafc55</name>
<cmt>v</cmt>
<desc>Francorchamps Chemin n°55 </desc>
<link href="https://chemins.be/francorchamps/chemin/55"/><trkseg>
<trkpt lat="50.463340" lon="5.979987"><time>2026-05-02T16:09:14Z</time></trkpt>
<trkpt lat="50.463963" lon="5.980892"><time>2026-05-02T16:19:14Z</time></trkpt>
<trkpt lat="50.464743" lon="5.982318"><time>2026-05-02T16:29:14Z</time></trkpt>
<trkpt lat="50.464935" lon="5.983387"><time>2026-05-02T16:39:14Z</time></trkpt>
<trkpt lat="50.464858" lon="5.983788"><time>2026-05-02T16:49:14Z</time></trkpt>
<trkpt lat="50.464663" lon="5.983976"><time>2026-05-02T16:59:14Z</time></trkpt>
</trkseg></trk>
<trk>
<name>lsafc55</name>
<cmt>q</cmt>
<desc>Francorchamps Chemin n°55 </desc>
<link href="https://chemins.be/francorchamps/chemin/55"/><trkseg>
<trkpt lat="50.464663" lon="5.983976"><time>2026-05-02T16:59:14Z</time></trkpt>
<trkpt lat="50.464758" lon="5.985437"><time>2026-05-02T17:09:14Z</time></trkpt>
</trkseg>
</trk>
<trk>
<name>lsafc55bis</name>
<cmt>v</cmt>
<desc>Francorchamps Chemin n°55bis Amon Cana</desc>
<link href="https://chemins.be/francorchamps/chemin/55bis"/><trkseg>
<trkpt lat="50.463094" lon="5.980531"><time>2026-05-02T16:09:14Z</time></trkpt>
<trkpt lat="50.463410" lon="5.980567"><time>2026-05-02T16:19:14Z</time></trkpt>
<trkpt lat="50.463692" lon="5.980760"><time>2026-05-02T16:29:14Z</time></trkpt>
<trkpt lat="50.463938" lon="5.980907"><time>2026-05-02T16:39:14Z</time></trkpt>
</trkseg>
</trk>
<trk>
<name>lsafc56</name>
<cmt>v</cmt>
<desc>Francorchamps Chemin n°56 </desc>
<link href="https://chemins.be/francorchamps/chemin/56"/><trkseg>
<trkpt lat="50.464228" lon="5.984126"><time>2026-05-02T16:09:14Z</time></trkpt>
<trkpt lat="50.464648" lon="5.983974"><time>2026-05-02T16:19:14Z</time></trkpt>
</trkseg>
</trk>
<trk>
<name>lsafc57</name>
<cmt>d</cmt>
<desc>Francorchamps Chemin n°57 </desc>
<link href="https://chemins.be/francorchamps/chemin/57"/><trkseg>
<trkpt lat="50.464918" lon="5.981443"><time>2026-05-02T16:09:14Z</time></trkpt>
<trkpt lat="50.466718" lon="5.983272"><time>2026-05-02T16:19:14Z</time></trkpt>
<trkpt lat="50.467481" lon="5.985224"><time>2026-05-02T16:29:14Z</time></trkpt>
</trkseg></trk>
<trk>
<name>lsafc57</name>
<cmt>v</cmt>
<desc>Francorchamps Chemin n°57 </desc>
<link href="https://chemins.be/francorchamps/chemin/57"/><trkseg>
<trkpt lat="50.467481" lon="5.985224"><time>2026-05-02T16:29:14Z</time></trkpt>
<trkpt lat="50.468720" lon="5.987729"><time>2026-05-02T16:39:14Z</time></trkpt>
</trkseg></trk>
<trk>
<name>lsafc57</name>
<cmt>s</cmt>
<desc>Francorchamps Chemin n°57 </desc>
<link href="https://chemins.be/francorchamps/chemin/57"/><trkseg>
<trkpt lat="50.468720" lon="5.987729"><time>2026-05-02T16:39:14Z</time></trkpt>
<trkpt lat="50.469086" lon="5.988430"><time>2026-05-02T16:49:14Z</time></trkpt>
</trkseg></trk>
<trk>
<name>lsafc57</name>
<cmt>d</cmt>
<desc>Francorchamps Chemin n°57 </desc>
<link href="https://chemins.be/francorchamps/chemin/57"/><trkseg>
<trkpt lat="50.469086" lon="5.988430"><time>2026-05-02T16:49:14Z</time></trkpt>
<trkpt lat="50.469436" lon="5.989135"><time>2026-05-02T16:59:14Z</time></trkpt>
</trkseg></trk>
<trk>
<name>lsafc57</name>
<cmt>v</cmt>
<desc>Francorchamps Chemin n°57 </desc>
<link href="https://chemins.be/francorchamps/chemin/57"/><trkseg>
<trkpt lat="50.469436" lon="5.989135"><time>2026-05-02T16:59:14Z</time></trkpt>
<trkpt lat="50.470411" lon="5.990939"><time>2026-05-02T17:09:14Z</time></trkpt>
<trkpt lat="50.470403" lon="5.994626"><time>2026-05-02T17:19:14Z</time></trkpt>
<trkpt lat="50.471712" lon="5.999143"><time>2026-05-02T17:29:14Z</time></trkpt>
<trkpt lat="50.472540" lon="6.001123"><time>2026-05-02T17:39:14Z</time></trkpt>
</trkseg></trk>
<trk>
<name>lsafc57</name>
<cmt>d</cmt>
<desc>Francorchamps Chemin n°57 </desc>
<link href="https://chemins.be/francorchamps/chemin/57"/><trkseg>
<trkpt lat="50.472540" lon="6.001123"><time>2026-05-02T17:39:14Z</time></trkpt>
<trkpt lat="50.473282" lon="6.001938"><time>2026-05-02T17:49:14Z</time></trkpt>
<trkpt lat="50.473351" lon="6.002350"><time>2026-05-02T17:59:14Z</time></trkpt>
<trkpt lat="50.473746" lon="6.004735"><time>2026-05-02T18:09:14Z</time></trkpt>
</trkseg>
</trk>
<trk>
<name>lsafc58</name>
<cmt>v</cmt>
<desc>Francorchamps Chemin n°58 </desc>
<link href="https://chemins.be/francorchamps/chemin/58"/><trkseg>
<trkpt lat="50.479267" lon="6.013809"><time>2026-05-02T16:09:14Z</time></trkpt>
<trkpt lat="50.478720" lon="6.008062"><time>2026-05-02T16:19:14Z</time></trkpt>
<trkpt lat="50.478383" lon="6.006403"><time>2026-05-02T16:29:14Z</time></trkpt>
<trkpt lat="50.477847" lon="6.003773"><time>2026-05-02T16:39:14Z</time></trkpt>
<trkpt lat="50.476403" lon="5.999793"><time>2026-05-02T16:49:14Z</time></trkpt>
</trkseg></trk>
<trk>
<name>lsafc58</name>
<cmt>d</cmt>
<desc>Francorchamps Chemin n°58 </desc>
<link href="https://chemins.be/francorchamps/chemin/58"/><trkseg>
<trkpt lat="50.476403" lon="5.999793"><time>2026-05-02T16:49:14Z</time></trkpt>
<trkpt lat="50.474799" lon="5.994967"><time>2026-05-02T16:59:14Z</time></trkpt>
</trkseg></trk>
<trk>
<name>lsafc58</name>
<cmt>v</cmt>
<desc>Francorchamps Chemin n°58 </desc>
<link href="https://chemins.be/francorchamps/chemin/58"/><trkseg>
<trkpt lat="50.474799" lon="5.994967"><time>2026-05-02T16:59:14Z</time></trkpt>
<trkpt lat="50.473942" lon="5.991353"><time>2026-05-02T17:09:14Z</time></trkpt>
<trkpt lat="50.473745" lon="5.989353"><time>2026-05-02T17:19:14Z</time></trkpt>
<trkpt lat="50.472936" lon="5.987311"><time>2026-05-02T17:29:14Z</time></trkpt>
<trkpt lat="50.472942" lon="5.987002"><time>2026-05-02T17:39:14Z</time></trkpt>
</trkseg>
</trk>
<trk>
<name>lsafc59</name>
<cmt>r</cmt>
<desc>Francorchamps Chemin n°59 </desc>
<link href="https://chemins.be/francorchamps/chemin/59"/><trkseg>
<trkpt lat="50.480167" lon="5.999365"><time>2026-05-02T16:09:14Z</time></trkpt>
<trkpt lat="50.480395" lon="6.000509"><time>2026-05-02T16:19:14Z</time></trkpt>
<trkpt lat="50.480149" lon="6.002183"><time>2026-05-02T16:29:14Z</time></trkpt>
</trkseg></trk>
<trk>
<name>lsafc59</name>
<cmt>q</cmt>
<desc>Francorchamps Chemin n°59 </desc>
<link href="https://chemins.be/francorchamps/chemin/59"/><trkseg>
<trkpt lat="50.480149" lon="6.002183"><time>2026-05-02T16:29:14Z</time></trkpt>
<trkpt lat="50.480477" lon="6.004729"><time>2026-05-02T16:39:14Z</time></trkpt>
<trkpt lat="50.480067" lon="6.008391"><time>2026-05-02T16:49:14Z</time></trkpt>
<trkpt lat="50.479503" lon="6.013870"><time>2026-05-02T16:59:14Z</time></trkpt>
</trkseg>
</trk>
<trk>
<name>lsafc60</name>
<cmt>v</cmt>
<desc>Francorchamps Chemin n°60 </desc>
<link href="https://chemins.be/francorchamps/chemin/60"/><trkseg>
<trkpt lat="50.480945" lon="5.997705"><time>2026-05-02T16:09:14Z</time></trkpt>
<trkpt lat="50.480718" lon="5.998621"><time>2026-05-02T16:19:14Z</time></trkpt>
<trkpt lat="50.480376" lon="5.998971"><time>2026-05-02T16:29:14Z</time></trkpt>
<trkpt lat="50.480133" lon="5.999109"><time>2026-05-02T16:39:14Z</time></trkpt>
</trkseg></trk>
<trk>
<name>lsafc60</name>
<cmt>q</cmt>
<desc>Francorchamps Chemin n°60 </desc>
<link href="https://chemins.be/francorchamps/chemin/60"/><trkseg>
<trkpt lat="50.480133" lon="5.999109"><time>2026-05-02T16:39:14Z</time></trkpt>
<trkpt lat="50.479361" lon="6.000981"><time>2026-05-02T16:49:14Z</time></trkpt>
<trkpt lat="50.478483" lon="6.002047"><time>2026-05-02T16:59:14Z</time></trkpt>
<trkpt lat="50.477973" lon="6.004500"><time>2026-05-02T17:09:14Z</time></trkpt>
</trkseg>
</trk>
<trk>
<name>lsafc61</name>
<cmt>v</cmt>
<desc>Francorchamps Chemin n°61 </desc>
<link href="https://chemins.be/francorchamps/chemin/61"/><trkseg>
<trkpt lat="50.491832" lon="5.998161"><time>2026-05-02T16:09:14Z</time></trkpt>
<trkpt lat="50.490673" lon="5.998873"><time>2026-05-02T16:19:14Z</time></trkpt>
<trkpt lat="50.489930" lon="5.999684"><time>2026-05-02T16:29:14Z</time></trkpt>
<trkpt lat="50.489530" lon="6.000119"><time>2026-05-02T16:39:14Z</time></trkpt>
<trkpt lat="50.489133" lon="6.000552"><time>2026-05-02T16:49:14Z</time></trkpt>
</trkseg></trk>
<trk>
<name>lsafc61</name>
<cmt>q</cmt>
<desc>Francorchamps Chemin n°61 </desc>
<link href="https://chemins.be/francorchamps/chemin/61"/><trkseg>
<trkpt lat="50.489133" lon="6.000552"><time>2026-05-02T16:49:14Z</time></trkpt>
<trkpt lat="50.486985" lon="6.002269"><time>2026-05-02T16:59:14Z</time></trkpt>
<trkpt lat="50.485528" lon="6.002505"><time>2026-05-02T17:09:14Z</time></trkpt>
</trkseg></trk>
<trk>
<name>lsafc61</name>
<cmt>v</cmt>
<desc>Francorchamps Chemin n°61 </desc>
<link href="https://chemins.be/francorchamps/chemin/61"/><trkseg>
<trkpt lat="50.485528" lon="6.002505"><time>2026-05-02T17:09:14Z</time></trkpt>
<trkpt lat="50.484803" lon="6.001860"><time>2026-05-02T17:19:14Z</time></trkpt>
</trkseg></trk>
<trk>
<name>lsafc61</name>
<cmt>d</cmt>
<desc>Francorchamps Chemin n°61 </desc>
<link href="https://chemins.be/francorchamps/chemin/61"/><trkseg>
<trkpt lat="50.484803" lon="6.001860"><time>2026-05-02T17:19:14Z</time></trkpt>
<trkpt lat="50.483854" lon="6.002140"><time>2026-05-02T17:29:14Z</time></trkpt>
</trkseg></trk>
<trk>
<name>lsafc61</name>
<cmt>v</cmt>
<desc>Francorchamps Chemin n°61 </desc>
<link href="https://chemins.be/francorchamps/chemin/61"/><trkseg>
<trkpt lat="50.483854" lon="6.002140"><time>2026-05-02T17:29:14Z</time></trkpt>
<trkpt lat="50.483540" lon="6.001997"><time>2026-05-02T17:39:14Z</time></trkpt>
<trkpt lat="50.483112" lon="6.000202"><time>2026-05-02T17:49:14Z</time></trkpt>
</trkseg>
</trk>
<trk>
<name>lsafc62</name>
<cmt>v</cmt>
<desc>Francorchamps Chemin n°62 Chemin de la Hoegne</desc>
<link href="https://chemins.be/francorchamps/chemin/62"/><trkseg>
<trkpt lat="50.487300" lon="5.993017"><time>2026-05-02T16:09:14Z</time></trkpt>
<trkpt lat="50.485792" lon="5.992802"><time>2026-05-02T16:19:14Z</time></trkpt>
<trkpt lat="50.482415" lon="5.994905"><time>2026-05-02T16:29:14Z</time></trkpt>
<trkpt lat="50.481933" lon="5.994791"><time>2026-05-02T16:39:14Z</time></trkpt>
<trkpt lat="50.481614" lon="5.995249"><time>2026-05-02T16:49:14Z</time></trkpt>
</trkseg>
</trk>
<trk>
<name>lsafc65</name>
<cmt>v</cmt>
<desc>Francorchamps Chemin n°65 </desc>
<link href="https://chemins.be/francorchamps/chemin/65"/><trkseg>
<trkpt lat="50.485679" lon="5.982066"><time>2026-05-02T16:09:14Z</time></trkpt>
<trkpt lat="50.485504" lon="5.980195"><time>2026-05-02T16:19:14Z</time></trkpt>
</trkseg></trk>
<trk>
<name>lsafc65</name>
<cmt>q</cmt>
<desc>Francorchamps Chemin n°65 </desc>
<link href="https://chemins.be/francorchamps/chemin/65"/><trkseg>
<trkpt lat="50.485504" lon="5.980195"><time>2026-05-02T16:19:14Z</time></trkpt>
<trkpt lat="50.486192" lon="5.975286"><time>2026-05-02T16:29:14Z</time></trkpt>
<trkpt lat="50.486558" lon="5.973415"><time>2026-05-02T16:39:14Z</time></trkpt>
</trkseg>
</trk>
<trk>
<name>lsafc67</name>
<cmt>v</cmt>
<desc>Francorchamps Chemin n°67 </desc>
<link href="https://chemins.be/francorchamps/chemin/67"/><trkseg>
<trkpt lat="50.449365" lon="5.955750"><time>2026-05-02T16:09:14Z</time></trkpt>
<trkpt lat="50.447853" lon="5.956587"><time>2026-05-02T16:19:14Z</time></trkpt>
<trkpt lat="50.446714" lon="5.957624"><time>2026-05-02T16:29:14Z</time></trkpt>
<trkpt lat="50.444860" lon="5.960206"><time>2026-05-02T16:39:14Z</time></trkpt>
<trkpt lat="50.443193" lon="5.960378"><time>2026-05-02T16:49:14Z</time></trkpt>
</trkseg>
</trk>
<trk>
<name>lsafc68</name>
<cmt>q</cmt>
<desc>Francorchamps Chemin n°68 </desc>
<link href="https://chemins.be/francorchamps/chemin/68"/><trkseg>
<trkpt lat="50.459160" lon="5.971649"><time>2026-05-02T16:09:14Z</time></trkpt>
<trkpt lat="50.458696" lon="5.972344"><time>2026-05-02T16:19:14Z</time></trkpt>
</trkseg>
</trk>
<trk>
<name>lsafc69</name>
<cmt>v</cmt>
<desc>Francorchamps Chemin n°69 </desc>
<link href="https://chemins.be/francorchamps/chemin/69"/><trkseg>
<trkpt lat="50.471761" lon="5.966397"><time>2026-05-02T16:09:14Z</time></trkpt>
<trkpt lat="50.472025" lon="5.967405"><time>2026-05-02T16:19:14Z</time></trkpt>
<trkpt lat="50.472239" lon="5.967870"><time>2026-05-02T16:29:14Z</time></trkpt>
<trkpt lat="50.472457" lon="5.969365"><time>2026-05-02T16:39:14Z</time></trkpt>
</trkseg>
</trk>
<trk>
<name>lsafc7</name>
<cmt>r</cmt>
<desc>Francorchamps Chemin n°7 </desc>
<link href="https://chemins.be/francorchamps/chemin/7"/><trkseg>
<trkpt lat="50.479104" lon="5.968304"><time>2026-05-02T16:09:14Z</time></trkpt>
<trkpt lat="50.478731" lon="5.967624"><time>2026-05-02T16:19:14Z</time></trkpt>
</trkseg></trk>
<trk>
<name>lsafc7</name>
<cmt>s</cmt>
<desc>Francorchamps Chemin n°7 </desc>
<link href="https://chemins.be/francorchamps/chemin/7"/><trkseg>
<trkpt lat="50.478731" lon="5.967624"><time>2026-05-02T16:19:14Z</time></trkpt>
<trkpt lat="50.478169" lon="5.966301"><time>2026-05-02T16:29:14Z</time></trkpt>
<trkpt lat="50.477341" lon="5.966298"><time>2026-05-02T16:39:14Z</time></trkpt>
<trkpt lat="50.476706" lon="5.966265"><time>2026-05-02T16:49:14Z</time></trkpt>
</trkseg></trk>
<trk>
<name>lsafc7</name>
<cmt>d</cmt>
<desc>Francorchamps Chemin n°7 </desc>
<link href="https://chemins.be/francorchamps/chemin/7"/><trkseg>
<trkpt lat="50.476706" lon="5.966265"><time>2026-05-02T16:49:14Z</time></trkpt>
<trkpt lat="50.476273" lon="5.966169"><time>2026-05-02T16:59:14Z</time></trkpt>
<trkpt lat="50.475408" lon="5.965958"><time>2026-05-02T17:09:14Z</time></trkpt>
<trkpt lat="50.474259" lon="5.965932"><time>2026-05-02T17:19:14Z</time></trkpt>
</trkseg></trk>
<trk>
<name>lsafc7</name>
<cmt>q</cmt>
<desc>Francorchamps Chemin n°7 </desc>
<link href="https://chemins.be/francorchamps/chemin/7"/><trkseg>
<trkpt lat="50.474259" lon="5.965932"><time>2026-05-02T17:19:14Z</time></trkpt>
<trkpt lat="50.473199" lon="5.965639"><time>2026-05-02T17:29:14Z</time></trkpt>
</trkseg>
</trk>
<trk>
<name>lsafc70</name>
<cmt>q</cmt>
<desc>Francorchamps Chemin n°70 </desc>
<link href="https://chemins.be/francorchamps/chemin/70"/><trkseg>
<trkpt lat="50.471478" lon="5.966444"><time>2026-05-02T16:09:14Z</time></trkpt>
<trkpt lat="50.472045" lon="5.965393"><time>2026-05-02T16:19:14Z</time></trkpt>
</trkseg>
</trk>
<trk>
<name>lsafc71</name>
<cmt>v</cmt>
<desc>Francorchamps Chemin n°71 </desc>
<link href="https://chemins.be/francorchamps/chemin/71"/><trkseg>
<trkpt lat="50.449838" lon="6.018389"><time>2026-05-02T16:09:14Z</time></trkpt>
<trkpt lat="50.451141" lon="6.017087"><time>2026-05-02T16:19:14Z</time></trkpt>
<trkpt lat="50.452175" lon="6.016665"><time>2026-05-02T16:29:14Z</time></trkpt>
<trkpt lat="50.453823" lon="6.016837"><time>2026-05-02T16:39:14Z</time></trkpt>
</trkseg></trk>
<trk>
<name>lsafc71</name>
<cmt>q</cmt>
<desc>Francorchamps Chemin n°71 </desc>
<link href="https://chemins.be/francorchamps/chemin/71"/><trkseg>
<trkpt lat="50.453823" lon="6.016837"><time>2026-05-02T16:39:14Z</time></trkpt>
<trkpt lat="50.454393" lon="6.017330"><time>2026-05-02T16:49:14Z</time></trkpt>
<trkpt lat="50.455531" lon="6.017159"><time>2026-05-02T16:59:14Z</time></trkpt>
</trkseg>
</trk>
<trk>
<name>lsafc72</name>
<cmt>q</cmt>
<desc>Francorchamps Sentier n°72 </desc>
<link href="https://chemins.be/francorchamps/sentier/72"/><trkseg>
<trkpt lat="50.453728" lon="5.948708"><time>2026-05-02T16:09:14Z</time></trkpt>
<trkpt lat="50.453341" lon="5.949634"><time>2026-05-02T16:19:14Z</time></trkpt>
<trkpt lat="50.453211" lon="5.950113"><time>2026-05-02T16:29:14Z</time></trkpt>
<trkpt lat="50.452945" lon="5.950299"><time>2026-05-02T16:39:14Z</time></trkpt>
<trkpt lat="50.452610" lon="5.950828"><time>2026-05-02T16:49:14Z</time></trkpt>
<trkpt lat="50.452515" lon="5.951107"><time>2026-05-02T16:59:14Z</time></trkpt>
<trkpt lat="50.452276" lon="5.951429"><time>2026-05-02T17:09:14Z</time></trkpt>
<trkpt lat="50.452210" lon="5.951751"><time>2026-05-02T17:19:14Z</time></trkpt>
</trkseg>
</trk>
<trk>
<name>lsafc74</name>
<cmt>q</cmt>
<desc>Francorchamps Sentier n°74 </desc>
<link href="https://chemins.be/francorchamps/sentier/74"/><trkseg>
<trkpt lat="50.472517" lon="5.953964"><time>2026-05-02T16:09:14Z</time></trkpt>
<trkpt lat="50.476578" lon="5.955466"><time>2026-05-02T16:19:14Z</time></trkpt>
</trkseg>
</trk>
<trk>
<name>lsafc75</name>
<cmt>s</cmt>
<desc>Francorchamps Sentier n°75 </desc>
<link href="https://chemins.be/francorchamps/sentier/75"/><trkseg>
<trkpt lat="50.479140" lon="5.968568"><time>2026-05-02T16:09:14Z</time></trkpt>
<trkpt lat="50.478110" lon="5.967152"><time>2026-05-02T16:19:14Z</time></trkpt>
<trkpt lat="50.476575" lon="5.966405"><time>2026-05-02T16:29:14Z</time></trkpt>
</trkseg></trk>
<trk>
<name>lsafc75</name>
<cmt>d</cmt>
<desc>Francorchamps Sentier n°75 </desc>
<link href="https://chemins.be/francorchamps/sentier/75"/><trkseg>
<trkpt lat="50.476575" lon="5.966405"><time>2026-05-02T16:29:14Z</time></trkpt>
<trkpt lat="50.476264" lon="5.966172"><time>2026-05-02T16:39:14Z</time></trkpt>
<trkpt lat="50.475576" lon="5.964221"><time>2026-05-02T16:49:14Z</time></trkpt>
</trkseg></trk>
<trk>
<name>lsafc75</name>
<cmt>q</cmt>
<desc>Francorchamps Sentier n°75 </desc>
<link href="https://chemins.be/francorchamps/sentier/75"/><trkseg>
<trkpt lat="50.475576" lon="5.964221"><time>2026-05-02T16:49:14Z</time></trkpt>
<trkpt lat="50.472188" lon="5.960712"><time>2026-05-02T16:59:14Z</time></trkpt>
<trkpt lat="50.469506" lon="5.958609"><time>2026-05-02T17:09:14Z</time></trkpt>
<trkpt lat="50.468839" lon="5.958506"><time>2026-05-02T17:19:14Z</time></trkpt>
<trkpt lat="50.464999" lon="5.955390"><time>2026-05-02T17:29:14Z</time></trkpt>
<trkpt lat="50.463786" lon="5.954807"><time>2026-05-02T17:39:14Z</time></trkpt>
<trkpt lat="50.462775" lon="5.953579"><time>2026-05-02T17:49:14Z</time></trkpt>
</trkseg>
</trk>
<trk>
<name>lsafc76</name>
<cmt>r</cmt>
<desc>Francorchamps Sentier n°76 </desc>
<link href="https://chemins.be/francorchamps/sentier/76"/><trkseg>
<trkpt lat="50.454570" lon="5.952374"><time>2026-05-02T16:09:14Z</time></trkpt>
<trkpt lat="50.454593" lon="5.952958"><time>2026-05-02T16:19:14Z</time></trkpt>
<trkpt lat="50.454662" lon="5.952983"><time>2026-05-02T16:29:14Z</time></trkpt>
</trkseg></trk>
<trk>
<name>lsafc76</name>
<cmt>d</cmt>
<desc>Francorchamps Sentier n°76 </desc>
<link href="https://chemins.be/francorchamps/sentier/76"/><trkseg>
<trkpt lat="50.454662" lon="5.952983"><time>2026-05-02T16:29:14Z</time></trkpt>
<trkpt lat="50.455050" lon="5.954287"><time>2026-05-02T16:39:14Z</time></trkpt>
</trkseg></trk>
<trk>
<name>lsafc76</name>
<cmt>q</cmt>
<desc>Francorchamps Sentier n°76 </desc>
<link href="https://chemins.be/francorchamps/sentier/76"/><trkseg>
<trkpt lat="50.455050" lon="5.954287"><time>2026-05-02T16:39:14Z</time></trkpt>
<trkpt lat="50.455267" lon="5.954563"><time>2026-05-02T16:49:14Z</time></trkpt>
<trkpt lat="50.456456" lon="5.956723"><time>2026-05-02T16:59:14Z</time></trkpt>
</trkseg>
</trk>
<trk>
<name>lsafc76bis</name>
<cmt>q</cmt>
<desc>Francorchamps Sentier n°76bis </desc>
<link href="https://chemins.be/francorchamps/sentier/76bis"/><trkseg>
<trkpt lat="50.459119" lon="5.966565"><time>2026-05-02T16:09:14Z</time></trkpt>
<trkpt lat="50.459634" lon="5.966679"><time>2026-05-02T16:19:14Z</time></trkpt>
<trkpt lat="50.461237" lon="5.968553"><time>2026-05-02T16:29:14Z</time></trkpt>
</trkseg>
</trk>
<trk>
<name>lsafc77</name>
<cmt>d</cmt>
<desc>Francorchamps Sentier n°77 </desc>
<link href="https://chemins.be/francorchamps/sentier/77"/><trkseg>
<trkpt lat="50.456548" lon="5.959558"><time>2026-05-02T16:09:14Z</time></trkpt>
<trkpt lat="50.456938" lon="5.960442"><time>2026-05-02T16:19:14Z</time></trkpt>
<trkpt lat="50.457576" lon="5.960850"><time>2026-05-02T16:29:14Z</time></trkpt>
<trkpt lat="50.458573" lon="5.962655"><time>2026-05-02T16:39:14Z</time></trkpt>
</trkseg></trk>
<trk>
<name>lsafc77</name>
<cmt>q</cmt>
<desc>Francorchamps Sentier n°77 </desc>
<link href="https://chemins.be/francorchamps/sentier/77"/><trkseg>
<trkpt lat="50.458573" lon="5.962655"><time>2026-05-02T16:39:14Z</time></trkpt>
<trkpt lat="50.459643" lon="5.963954"><time>2026-05-02T16:49:14Z</time></trkpt>
<trkpt lat="50.460344" lon="5.964162"><time>2026-05-02T16:59:14Z</time></trkpt>
<trkpt lat="50.461360" lon="5.965256"><time>2026-05-02T17:09:14Z</time></trkpt>
</trkseg>
</trk>
<trk>
<name>lsafc78</name>
<cmt>q</cmt>
<desc>Francorchamps Sentier n°78 </desc>
<link href="https://chemins.be/francorchamps/sentier/78"/><trkseg>
<trkpt lat="50.456577" lon="5.959608"><time>2026-05-02T16:09:14Z</time></trkpt>
<trkpt lat="50.456153" lon="5.960509"><time>2026-05-02T16:19:14Z</time></trkpt>
<trkpt lat="50.456255" lon="5.964097"><time>2026-05-02T16:29:14Z</time></trkpt>
</trkseg></trk>
<trk>
<name>lsafc78</name>
<cmt>r</cmt>
<desc>Francorchamps Sentier n°78 </desc>
<link href="https://chemins.be/francorchamps/sentier/78"/><trkseg>
<trkpt lat="50.456255" lon="5.964097"><time>2026-05-02T16:29:14Z</time></trkpt>
<trkpt lat="50.456824" lon="5.965077"><time>2026-05-02T16:39:14Z</time></trkpt>
</trkseg></trk>
<trk>
<name>lsafc78</name>
<cmt>q</cmt>
<desc>Francorchamps Sentier n°78 </desc>
<link href="https://chemins.be/francorchamps/sentier/78"/><trkseg>
<trkpt lat="50.456824" lon="5.965077"><time>2026-05-02T16:39:14Z</time></trkpt>
<trkpt lat="50.457421" lon="5.967123"><time>2026-05-02T16:49:14Z</time></trkpt>
<trkpt lat="50.457935" lon="5.967945"><time>2026-05-02T16:59:14Z</time></trkpt>
<trkpt lat="50.458204" lon="5.967938"><time>2026-05-02T17:09:14Z</time></trkpt>
<trkpt lat="50.458442" lon="5.968924"><time>2026-05-02T17:19:14Z</time></trkpt>
</trkseg></trk>
<trk>
<name>lsafc78</name>
<cmt>v</cmt>
<desc>Francorchamps Sentier n°78 </desc>
<link href="https://chemins.be/francorchamps/sentier/78"/><trkseg>
<trkpt lat="50.458442" lon="5.968924"><time>2026-05-02T17:19:14Z</time></trkpt>
<trkpt lat="50.458726" lon="5.969876"><time>2026-05-02T17:29:14Z</time></trkpt>
</trkseg></trk>
<trk>
<name>lsafc78</name>
<cmt>d</cmt>
<desc>Francorchamps Sentier n°78 </desc>
<link href="https://chemins.be/francorchamps/sentier/78"/><trkseg>
<trkpt lat="50.458726" lon="5.969876"><time>2026-05-02T17:29:14Z</time></trkpt>
<trkpt lat="50.458798" lon="5.970262"><time>2026-05-02T17:39:14Z</time></trkpt>
<trkpt lat="50.458742" lon="5.970648"><time>2026-05-02T17:49:14Z</time></trkpt>
<trkpt lat="50.458713" lon="5.971281"><time>2026-05-02T17:59:14Z</time></trkpt>
</trkseg></trk>
<trk>
<name>lsafc78</name>
<cmt>q</cmt>
<desc>Francorchamps Sentier n°78 </desc>
<link href="https://chemins.be/francorchamps/sentier/78"/><trkseg>
<trkpt lat="50.458713" lon="5.971281"><time>2026-05-02T17:59:14Z</time></trkpt>
<trkpt lat="50.458696" lon="5.972301"><time>2026-05-02T18:09:14Z</time></trkpt>
<trkpt lat="50.458505" lon="5.973145"><time>2026-05-02T18:19:14Z</time></trkpt>
<trkpt lat="50.457671" lon="5.974197"><time>2026-05-02T18:29:14Z</time></trkpt>
</trkseg>
</trk>
<trk>
<name>lsafc79</name>
<cmt>q</cmt>
<desc>Francorchamps Sentier n°79 Chemin de Tîsimany</desc>
<link href="https://chemins.be/francorchamps/sentier/79"/><trkseg>
<trkpt lat="50.462435" lon="5.969649"><time>2026-05-02T16:09:14Z</time></trkpt>
<trkpt lat="50.462872" lon="5.969860"><time>2026-05-02T16:19:14Z</time></trkpt>
<trkpt lat="50.463108" lon="5.970367"><time>2026-05-02T16:29:14Z</time></trkpt>
<trkpt lat="50.463466" lon="5.970078"><time>2026-05-02T16:39:14Z</time></trkpt>
<trkpt lat="50.464977" lon="5.970207"><time>2026-05-02T16:49:14Z</time></trkpt>
<trkpt lat="50.466034" lon="5.970780"><time>2026-05-02T16:59:14Z</time></trkpt>
<trkpt lat="50.468886" lon="5.972163"><time>2026-05-02T17:09:14Z</time></trkpt>
</trkseg></trk>
<trk>
<name>lsafc79</name>
<cmt>r</cmt>
<desc>Francorchamps Sentier n°79 Chemin de Tîsimany</desc>
<link href="https://chemins.be/francorchamps/sentier/79"/><trkseg>
<trkpt lat="50.468886" lon="5.972163"><time>2026-05-02T17:09:14Z</time></trkpt>
<trkpt lat="50.470086" lon="5.973369"><time>2026-05-02T17:19:14Z</time></trkpt>
<trkpt lat="50.470541" lon="5.973626"><time>2026-05-02T17:29:14Z</time></trkpt>
<trkpt lat="50.471767" lon="5.976353"><time>2026-05-02T17:39:14Z</time></trkpt>
</trkseg></trk>
<trk>
<name>lsafc79</name>
<cmt>q</cmt>
<desc>Francorchamps Sentier n°79 Chemin de Tîsimany</desc>
<link href="https://chemins.be/francorchamps/sentier/79"/><trkseg>
<trkpt lat="50.471767" lon="5.976353"><time>2026-05-02T17:39:14Z</time></trkpt>
<trkpt lat="50.473046" lon="5.977634"><time>2026-05-02T17:49:14Z</time></trkpt>
</trkseg></trk>
<trk>
<name>lsafc79</name>
<cmt>s</cmt>
<desc>Francorchamps Sentier n°79 Chemin de Tîsimany</desc>
<link href="https://chemins.be/francorchamps/sentier/79"/><trkseg>
<trkpt lat="50.473046" lon="5.977634"><time>2026-05-02T17:49:14Z</time></trkpt>
<trkpt lat="50.473706" lon="5.978206"><time>2026-05-02T17:59:14Z</time></trkpt>
</trkseg></trk>
<trk>
<name>lsafc79</name>
<cmt>q</cmt>
<desc>Francorchamps Sentier n°79 Chemin de Tîsimany</desc>
<link href="https://chemins.be/francorchamps/sentier/79"/><trkseg>
<trkpt lat="50.473706" lon="5.978206"><time>2026-05-02T17:59:14Z</time></trkpt>
<trkpt lat="50.474940" lon="5.978599"><time>2026-05-02T18:09:14Z</time></trkpt>
<trkpt lat="50.476692" lon="5.980332"><time>2026-05-02T18:19:14Z</time></trkpt>
<trkpt lat="50.479909" lon="5.984455"><time>2026-05-02T18:29:14Z</time></trkpt>
<trkpt lat="50.481450" lon="5.987845"><time>2026-05-02T18:39:14Z</time></trkpt>
</trkseg>
</trk>
<trk>
<name>lsafc80</name>
<cmt>q</cmt>
<desc>Francorchamps Sentier n°80 </desc>
<link href="https://chemins.be/francorchamps/sentier/80"/><trkseg>
<trkpt lat="50.482441" lon="5.984278"><time>2026-05-02T16:09:14Z</time></trkpt>
<trkpt lat="50.482432" lon="5.983027"><time>2026-05-02T16:19:14Z</time></trkpt>
<trkpt lat="50.482236" lon="5.982390"><time>2026-05-02T16:29:14Z</time></trkpt>
<trkpt lat="50.482350" lon="5.981911"><time>2026-05-02T16:39:14Z</time></trkpt>
<trkpt lat="50.481968" lon="5.981811"><time>2026-05-02T16:49:14Z</time></trkpt>
<trkpt lat="50.481112" lon="5.979186"><time>2026-05-02T16:59:14Z</time></trkpt>
<trkpt lat="50.480994" lon="5.976518"><time>2026-05-02T17:09:14Z</time></trkpt>
<trkpt lat="50.480880" lon="5.975273"><time>2026-05-02T17:19:14Z</time></trkpt>
<trkpt lat="50.479956" lon="5.972577"><time>2026-05-02T17:29:14Z</time></trkpt>
</trkseg>
</trk>
<trk>
<name>lsafc81</name>
<cmt>r</cmt>
<desc>Francorchamps Sentier n°81 Chemin du Grand Biseu</desc>
<link href="https://chemins.be/francorchamps/sentier/81"/><trkseg>
<trkpt lat="50.481082" lon="5.988366"><time>2026-05-02T16:09:14Z</time></trkpt>
<trkpt lat="50.479489" lon="5.989246"><time>2026-05-02T16:19:14Z</time></trkpt>
</trkseg>
</trk>
<trk>
<name>lsafc82</name>
<cmt>v</cmt>
<desc>Francorchamps Sentier n°82 Cronchamps / Ancien Chemin de Verviers à Malmedy / Viaduc de l'Eau Rouge</desc>
<link href="https://chemins.be/francorchamps/sentier/82"/><trkseg>
<trkpt lat="50.483811" lon="5.966048"><time>2026-05-02T16:09:14Z</time></trkpt>
<trkpt lat="50.482761" lon="5.967944"><time>2026-05-02T16:19:14Z</time></trkpt>
</trkseg></trk>
<trk>
<name>lsafc82</name>
<cmt>q</cmt>
<desc>Francorchamps Sentier n°82 Cronchamps / Ancien Chemin de Verviers à Malmedy / Viaduc de l'Eau Rouge</desc>
<link href="https://chemins.be/francorchamps/sentier/82"/><trkseg>
<trkpt lat="50.482761" lon="5.967944"><time>2026-05-02T16:19:14Z</time></trkpt>
<trkpt lat="50.481597" lon="5.969480"><time>2026-05-02T16:29:14Z</time></trkpt>
</trkseg></trk>
<trk>
<name>lsafc82</name>
<cmt>v</cmt>
<desc>Francorchamps Sentier n°82 Cronchamps / Ancien Chemin de Verviers à Malmedy / Viaduc de l'Eau Rouge</desc>
<link href="https://chemins.be/francorchamps/sentier/82"/><trkseg>
<trkpt lat="50.481597" lon="5.969480"><time>2026-05-02T16:29:14Z</time></trkpt>
<trkpt lat="50.480100" lon="5.971279"><time>2026-05-02T16:39:14Z</time></trkpt>
<trkpt lat="50.480076" lon="5.972000"><time>2026-05-02T16:49:14Z</time></trkpt>
<trkpt lat="50.479904" lon="5.972120"><time>2026-05-02T16:59:14Z</time></trkpt>
<trkpt lat="50.479912" lon="5.972815"><time>2026-05-02T17:09:14Z</time></trkpt>
<trkpt lat="50.478432" lon="5.973927"><time>2026-05-02T17:19:14Z</time></trkpt>
</trkseg></trk>
<trk>
<name>lsafc82</name>
<cmt>r</cmt>
<desc>Francorchamps Sentier n°82 Cronchamps / Ancien Chemin de Verviers à Malmedy / Viaduc de l'Eau Rouge</desc>
<link href="https://chemins.be/francorchamps/sentier/82"/><trkseg>
<trkpt lat="50.478432" lon="5.973927"><time>2026-05-02T17:19:14Z</time></trkpt>
<trkpt lat="50.477375" lon="5.975557"><time>2026-05-02T17:29:14Z</time></trkpt>
</trkseg></trk>
<trk>
<name>lsafc82</name>
<cmt>q</cmt>
<desc>Francorchamps Sentier n°82 Cronchamps / Ancien Chemin de Verviers à Malmedy / Viaduc de l'Eau Rouge</desc>
<link href="https://chemins.be/francorchamps/sentier/82"/><trkseg>
<trkpt lat="50.477375" lon="5.975557"><time>2026-05-02T17:29:14Z</time></trkpt>
<trkpt lat="50.474960" lon="5.978492"><time>2026-05-02T17:39:14Z</time></trkpt>
<trkpt lat="50.474027" lon="5.979626"><time>2026-05-02T17:49:14Z</time></trkpt>
<trkpt lat="50.472896" lon="5.979840"><time>2026-05-02T17:59:14Z</time></trkpt>
</trkseg></trk>
<trk>
<name>lsafc82</name>
<cmt>s</cmt>
<desc>Francorchamps Sentier n°82 Cronchamps / Ancien Chemin de Verviers à Malmedy / Viaduc de l'Eau Rouge</desc>
<link href="https://chemins.be/francorchamps/sentier/82"/><trkseg>
<trkpt lat="50.472896" lon="5.979840"><time>2026-05-02T17:59:14Z</time></trkpt>
<trkpt lat="50.471814" lon="5.980879"><time>2026-05-02T18:09:14Z</time></trkpt>
</trkseg></trk>
<trk>
<name>lsafc82</name>
<cmt>v</cmt>
<desc>Francorchamps Sentier n°82 Cronchamps / Ancien Chemin de Verviers à Malmedy / Viaduc de l'Eau Rouge</desc>
<link href="https://chemins.be/francorchamps/sentier/82"/><trkseg>
<trkpt lat="50.471814" lon="5.980879"><time>2026-05-02T18:09:14Z</time></trkpt>
<trkpt lat="50.470908" lon="5.981256"><time>2026-05-02T18:19:14Z</time></trkpt>
<trkpt lat="50.469640" lon="5.982303"><time>2026-05-02T18:29:14Z</time></trkpt>
<trkpt lat="50.468788" lon="5.983908"><time>2026-05-02T18:39:14Z</time></trkpt>
<trkpt lat="50.466531" lon="5.986166"><time>2026-05-02T18:49:14Z</time></trkpt>
<trkpt lat="50.465013" lon="5.987646"><time>2026-05-02T18:59:14Z</time></trkpt>
<trkpt lat="50.463353" lon="5.989263"><time>2026-05-02T19:09:14Z</time></trkpt>
<trkpt lat="50.462643" lon="5.989366"><time>2026-05-02T19:19:14Z</time></trkpt>
<trkpt lat="50.461480" lon="5.990424"><time>2026-05-02T19:29:14Z</time></trkpt>
</trkseg></trk>
<trk>
<name>lsafc82</name>
<cmt>q</cmt>
<desc>Francorchamps Sentier n°82 Cronchamps / Ancien Chemin de Verviers à Malmedy / Viaduc de l'Eau Rouge</desc>
<link href="https://chemins.be/francorchamps/sentier/82"/><trkseg>
<trkpt lat="50.461480" lon="5.990424"><time>2026-05-02T19:29:14Z</time></trkpt>
<trkpt lat="50.458980" lon="5.993600"><time>2026-05-02T19:39:14Z</time></trkpt>
<trkpt lat="50.458828" lon="5.993782"><time>2026-05-02T19:49:14Z</time></trkpt>
<trkpt lat="50.454103" lon="5.999415"><time>2026-05-02T19:59:14Z</time></trkpt>
<trkpt lat="50.453176" lon="5.999721"><time>2026-05-02T20:09:14Z</time></trkpt>
</trkseg></trk>
<trk>
<name>lsafc82</name>
<cmt>v</cmt>
<desc>Francorchamps Sentier n°82 Cronchamps / Ancien Chemin de Verviers à Malmedy / Viaduc de l'Eau Rouge</desc>
<link href="https://chemins.be/francorchamps/sentier/82"/><trkseg>
<trkpt lat="50.453176" lon="5.999721"><time>2026-05-02T20:09:14Z</time></trkpt>
<trkpt lat="50.452533" lon="6.001530"><time>2026-05-02T20:19:14Z</time></trkpt>
<trkpt lat="50.452014" lon="6.001902"><time>2026-05-02T20:29:14Z</time></trkpt>
<trkpt lat="50.451370" lon="6.002651"><time>2026-05-02T20:39:14Z</time></trkpt>
<trkpt lat="50.450650" lon="6.004583"><time>2026-05-02T20:49:14Z</time></trkpt>
<trkpt lat="50.448655" lon="6.006042"><time>2026-05-02T20:59:14Z</time></trkpt>
<trkpt lat="50.446697" lon="6.006786"><time>2026-05-02T21:09:14Z</time></trkpt>
<trkpt lat="50.444602" lon="6.007086"><time>2026-05-02T21:19:14Z</time></trkpt>
</trkseg>
</trk>
<trk>
<name>lsafc83</name>
<cmt>q</cmt>
<desc>Francorchamps Sentier n°83 </desc>
<link href="https://chemins.be/francorchamps/sentier/83"/><trkseg>
<trkpt lat="50.461076" lon="5.974713"><time>2026-05-02T16:09:14Z</time></trkpt>
<trkpt lat="50.460839" lon="5.975242"><time>2026-05-02T16:19:14Z</time></trkpt>
<trkpt lat="50.460470" lon="5.976787"><time>2026-05-02T16:29:14Z</time></trkpt>
<trkpt lat="50.460445" lon="5.977871"><time>2026-05-02T16:39:14Z</time></trkpt>
<trkpt lat="50.460700" lon="5.978722"><time>2026-05-02T16:49:14Z</time></trkpt>
<trkpt lat="50.460265" lon="5.982008"><time>2026-05-02T16:59:14Z</time></trkpt>
<trkpt lat="50.459461" lon="5.984061"><time>2026-05-02T17:09:14Z</time></trkpt>
</trkseg></trk>
<trk>
<name>lsafc83</name>
<cmt>v</cmt>
<desc>Francorchamps Sentier n°83 </desc>
<link href="https://chemins.be/francorchamps/sentier/83"/><trkseg>
<trkpt lat="50.459461" lon="5.984061"><time>2026-05-02T17:09:14Z</time></trkpt>
<trkpt lat="50.459063" lon="5.984916"><time>2026-05-02T17:19:14Z</time></trkpt>
</trkseg>
</trk>
<trk>
<name>lsafc84</name>
<cmt>q</cmt>
<desc>Francorchamps Sentier n°84 </desc>
<link href="https://chemins.be/francorchamps/sentier/84"/><trkseg>
<trkpt lat="50.453978" lon="5.981154"><time>2026-05-02T16:09:14Z</time></trkpt>
<trkpt lat="50.451053" lon="5.980725"><time>2026-05-02T16:19:14Z</time></trkpt>
<trkpt lat="50.447309" lon="5.985961"><time>2026-05-02T16:29:14Z</time></trkpt>
<trkpt lat="50.446242" lon="5.988135"><time>2026-05-02T16:39:14Z</time></trkpt>
<trkpt lat="50.445560" lon="5.989523"><time>2026-05-02T16:49:14Z</time></trkpt>
</trkseg>
</trk>
<trk>
<name>lsafc85</name>
<cmt>q</cmt>
<desc>Francorchamps Sentier n°85 </desc>
<link href="https://chemins.be/francorchamps/sentier/85"/><trkseg>
<trkpt lat="50.460726" lon="5.970267"><time>2026-05-02T16:09:14Z</time></trkpt>
<trkpt lat="50.461336" lon="5.969734"><time>2026-05-02T16:19:14Z</time></trkpt>
</trkseg>
</trk>
<trk>
<name>lsafc86</name>
<cmt>v</cmt>
<desc>Francorchamps Sentier n°86 Rue de la Vierge Noire</desc>
<link href="https://chemins.be/francorchamps/sentier/86"/><trkseg>
<trkpt lat="50.461393" lon="5.973021"><time>2026-05-02T16:09:14Z</time></trkpt>
<trkpt lat="50.461409" lon="5.972728"><time>2026-05-02T16:19:14Z</time></trkpt>
<trkpt lat="50.461539" lon="5.972613"><time>2026-05-02T16:29:14Z</time></trkpt>
<trkpt lat="50.461655" lon="5.972578"><time>2026-05-02T16:39:14Z</time></trkpt>
<trkpt lat="50.461617" lon="5.972303"><time>2026-05-02T16:49:14Z</time></trkpt>
<trkpt lat="50.461753" lon="5.972170"><time>2026-05-02T16:59:14Z</time></trkpt>
<trkpt lat="50.461499" lon="5.970882"><time>2026-05-02T17:09:14Z</time></trkpt>
<trkpt lat="50.461288" lon="5.970364"><time>2026-05-02T17:19:14Z</time></trkpt>
</trkseg>
</trk>
<trk>
<name>lsafc88</name>
<cmt>r</cmt>
<desc>Francorchamps Chemin n°88 Route de Cronchamps</desc>
<link href="https://chemins.be/francorchamps/chemin/88"/><trkseg>
<trkpt lat="50.462908" lon="5.979108"><time>2026-05-02T16:09:14Z</time></trkpt>
<trkpt lat="50.462644" lon="5.979644"><time>2026-05-02T16:19:14Z</time></trkpt>
<trkpt lat="50.462077" lon="5.979816"><time>2026-05-02T16:29:14Z</time></trkpt>
<trkpt lat="50.461727" lon="5.980932"><time>2026-05-02T16:39:14Z</time></trkpt>
<trkpt lat="50.461678" lon="5.981347"><time>2026-05-02T16:49:14Z</time></trkpt>
<trkpt lat="50.461788" lon="5.981676"><time>2026-05-02T16:59:14Z</time></trkpt>
<trkpt lat="50.462005" lon="5.981654"><time>2026-05-02T17:09:14Z</time></trkpt>
<trkpt lat="50.462411" lon="5.981400"><time>2026-05-02T17:19:14Z</time></trkpt>
<trkpt lat="50.463209" lon="5.981432"><time>2026-05-02T17:29:14Z</time></trkpt>
</trkseg>
</trk>
<trk>
<name>lsafci1</name>
<cmt>v</cmt>
<desc>Francorchamps Sentier n°i1 </desc>
<link href="https://chemins.be/francorchamps/sentier/i1"/><trkseg>
<trkpt lat="50.457589" lon="5.934036"><time>2026-05-02T16:09:14Z</time></trkpt>
<trkpt lat="50.457245" lon="5.933545"><time>2026-05-02T16:19:14Z</time></trkpt>
<trkpt lat="50.456948" lon="5.933578"><time>2026-05-02T16:29:14Z</time></trkpt>
<trkpt lat="50.456448" lon="5.933970"><time>2026-05-02T16:39:14Z</time></trkpt>
<trkpt lat="50.456238" lon="5.934850"><time>2026-05-02T16:49:14Z</time></trkpt>
<trkpt lat="50.456190" lon="5.935750"><time>2026-05-02T16:59:14Z</time></trkpt>
<trkpt lat="50.456819" lon="5.937757"><time>2026-05-02T17:09:14Z</time></trkpt>
<trkpt lat="50.457184" lon="5.938741"><time>2026-05-02T17:19:14Z</time></trkpt>
<trkpt lat="50.457446" lon="5.939961"><time>2026-05-02T17:29:14Z</time></trkpt>
<trkpt lat="50.457622" lon="5.940869"><time>2026-05-02T17:39:14Z</time></trkpt>
<trkpt lat="50.457679" lon="5.941307"><time>2026-05-02T17:49:14Z</time></trkpt>
</trkseg>
</trk>
<trk>
<name>lsafci10</name>
<cmt>q</cmt>
<desc>Francorchamps Chemin n°i10 </desc>
<link href="https://chemins.be/francorchamps/chemin/i10"/><trkseg>
<trkpt lat="50.484264" lon="5.986159"><time>2026-05-02T16:09:14Z</time></trkpt>
<trkpt lat="50.484551" lon="5.986535"><time>2026-05-02T16:19:14Z</time></trkpt>
<trkpt lat="50.484968" lon="5.987543"><time>2026-05-02T16:29:14Z</time></trkpt>
</trkseg>
</trk>
<trk>
<name>lsafci11</name>
<cmt>v</cmt>
<desc>Francorchamps Chemin n°i11 </desc>
<link href="https://chemins.be/francorchamps/chemin/i11"/><trkseg>
<trkpt lat="50.482592" lon="5.985304"><time>2026-05-02T16:09:14Z</time></trkpt>
<trkpt lat="50.483647" lon="5.987788"><time>2026-05-02T16:19:14Z</time></trkpt>
<trkpt lat="50.485098" lon="5.989735"><time>2026-05-02T16:29:14Z</time></trkpt>
<trkpt lat="50.486088" lon="5.990754"><time>2026-05-02T16:39:14Z</time></trkpt>
<trkpt lat="50.486729" lon="5.991038"><time>2026-05-02T16:49:14Z</time></trkpt>
<trkpt lat="50.486845" lon="5.991194"><time>2026-05-02T16:59:14Z</time></trkpt>
</trkseg>
</trk>
<trk>
<name>lsafci12</name>
<cmt>v</cmt>
<desc>Francorchamps Sentier n°i12 </desc>
<link href="https://chemins.be/francorchamps/sentier/i12"/><trkseg>
<trkpt lat="50.488392" lon="5.993713"><time>2026-05-02T16:09:14Z</time></trkpt>
<trkpt lat="50.488515" lon="5.994070"><time>2026-05-02T16:19:14Z</time></trkpt>
<trkpt lat="50.488433" lon="5.995365"><time>2026-05-02T16:29:14Z</time></trkpt>
<trkpt lat="50.489245" lon="5.996709"><time>2026-05-02T16:39:14Z</time></trkpt>
<trkpt lat="50.488965" lon="5.999685"><time>2026-05-02T16:49:14Z</time></trkpt>
<trkpt lat="50.489857" lon="6.001831"><time>2026-05-02T16:59:14Z</time></trkpt>
<trkpt lat="50.490262" lon="6.004570"><time>2026-05-02T17:09:14Z</time></trkpt>
<trkpt lat="50.490940" lon="6.006952"><time>2026-05-02T17:19:14Z</time></trkpt>
<trkpt lat="50.491477" lon="6.007229"><time>2026-05-02T17:29:14Z</time></trkpt>
<trkpt lat="50.491755" lon="6.008488"><time>2026-05-02T17:39:14Z</time></trkpt>
</trkseg>
</trk>
<trk>
<name>lsafci13</name>
<cmt>v</cmt>
<desc>Francorchamps Chemin n°i13 </desc>
<link href="https://chemins.be/francorchamps/chemin/i13"/><trkseg>
<trkpt lat="50.472477" lon="5.969387"><time>2026-05-02T16:09:14Z</time></trkpt>
<trkpt lat="50.472986" lon="5.970379"><time>2026-05-02T16:19:14Z</time></trkpt>
<trkpt lat="50.474361" lon="5.971109"><time>2026-05-02T16:29:14Z</time></trkpt>
<trkpt lat="50.474935" lon="5.971681"><time>2026-05-02T16:39:14Z</time></trkpt>
<trkpt lat="50.474512" lon="5.973106"><time>2026-05-02T16:49:14Z</time></trkpt>
<trkpt lat="50.474451" lon="5.973285"><time>2026-05-02T16:59:14Z</time></trkpt>
<trkpt lat="50.473897" lon="5.974928"><time>2026-05-02T17:09:14Z</time></trkpt>
</trkseg>
</trk>
<trk>
<name>lsafci14</name>
<cmt>v</cmt>
<desc>Francorchamps Chemin n°i14 </desc>
<link href="https://chemins.be/francorchamps/chemin/i14"/><trkseg>
<trkpt lat="50.474027" lon="5.965202"><time>2026-05-02T16:09:14Z</time></trkpt>
<trkpt lat="50.473827" lon="5.964745"><time>2026-05-02T16:19:14Z</time></trkpt>
<trkpt lat="50.471821" lon="5.965486"><time>2026-05-02T16:29:14Z</time></trkpt>
</trkseg>
</trk>
<trk>
<name>lsafci2</name>
<cmt>v</cmt>
<desc>Francorchamps Sentier n°i2 </desc>
<link href="https://chemins.be/francorchamps/sentier/i2"/><trkseg>
<trkpt lat="50.457597" lon="5.946699"><time>2026-05-02T16:09:14Z</time></trkpt>
<trkpt lat="50.457517" lon="5.946626"><time>2026-05-02T16:19:14Z</time></trkpt>
<trkpt lat="50.457245" lon="5.946180"><time>2026-05-02T16:29:14Z</time></trkpt>
<trkpt lat="50.457175" lon="5.946037"><time>2026-05-02T16:39:14Z</time></trkpt>
<trkpt lat="50.457177" lon="5.945882"><time>2026-05-02T16:49:14Z</time></trkpt>
<trkpt lat="50.457215" lon="5.945701"><time>2026-05-02T16:59:14Z</time></trkpt>
<trkpt lat="50.457217" lon="5.945588"><time>2026-05-02T17:09:14Z</time></trkpt>
<trkpt lat="50.457119" lon="5.945486"><time>2026-05-02T17:19:14Z</time></trkpt>
<trkpt lat="50.457076" lon="5.945386"><time>2026-05-02T17:29:14Z</time></trkpt>
<trkpt lat="50.456978" lon="5.945326"><time>2026-05-02T17:39:14Z</time></trkpt>
<trkpt lat="50.456873" lon="5.945098"><time>2026-05-02T17:49:14Z</time></trkpt>
<trkpt lat="50.456784" lon="5.945010"><time>2026-05-02T17:59:14Z</time></trkpt>
<trkpt lat="50.456596" lon="5.944947"><time>2026-05-02T18:09:14Z</time></trkpt>
<trkpt lat="50.456445" lon="5.944802"><time>2026-05-02T18:19:14Z</time></trkpt>
<trkpt lat="50.456349" lon="5.944615"><time>2026-05-02T18:29:14Z</time></trkpt>
<trkpt lat="50.456359" lon="5.944559"><time>2026-05-02T18:39:14Z</time></trkpt>
<trkpt lat="50.456281" lon="5.944345"><time>2026-05-02T18:49:14Z</time></trkpt>
<trkpt lat="50.456121" lon="5.944143"><time>2026-05-02T18:59:14Z</time></trkpt>
<trkpt lat="50.456007" lon="5.943956"><time>2026-05-02T19:09:14Z</time></trkpt>
<trkpt lat="50.455945" lon="5.943912"><time>2026-05-02T19:19:14Z</time></trkpt>
<trkpt lat="50.455892" lon="5.943811"><time>2026-05-02T19:29:14Z</time></trkpt>
<trkpt lat="50.455789" lon="5.943484"><time>2026-05-02T19:39:14Z</time></trkpt>
<trkpt lat="50.455727" lon="5.943355"><time>2026-05-02T19:49:14Z</time></trkpt>
<trkpt lat="50.455585" lon="5.943224"><time>2026-05-02T19:59:14Z</time></trkpt>
<trkpt lat="50.455446" lon="5.942867"><time>2026-05-02T20:09:14Z</time></trkpt>
<trkpt lat="50.455313" lon="5.942736"><time>2026-05-02T20:19:14Z</time></trkpt>
<trkpt lat="50.455244" lon="5.942522"><time>2026-05-02T20:29:14Z</time></trkpt>
<trkpt lat="50.455255" lon="5.942368"><time>2026-05-02T20:39:14Z</time></trkpt>
<trkpt lat="50.455302" lon="5.942200"><time>2026-05-02T20:49:14Z</time></trkpt>
<trkpt lat="50.455251" lon="5.942001"><time>2026-05-02T20:59:14Z</time></trkpt>
<trkpt lat="50.455245" lon="5.941762"><time>2026-05-02T21:09:14Z</time></trkpt>
<trkpt lat="50.455176" lon="5.941576"><time>2026-05-02T21:19:14Z</time></trkpt>
<trkpt lat="50.454913" lon="5.941089"><time>2026-05-02T21:29:14Z</time></trkpt>
<trkpt lat="50.454853" lon="5.940889"><time>2026-05-02T21:39:14Z</time></trkpt>
<trkpt lat="50.454817" lon="5.940860"><time>2026-05-02T21:49:14Z</time></trkpt>
<trkpt lat="50.454774" lon="5.940690"><time>2026-05-02T21:59:14Z</time></trkpt>
<trkpt lat="50.454758" lon="5.940534"><time>2026-05-02T22:09:14Z</time></trkpt>
<trkpt lat="50.454661" lon="5.940390"><time>2026-05-02T22:19:14Z</time></trkpt>
<trkpt lat="50.454654" lon="5.940291"><time>2026-05-02T22:29:14Z</time></trkpt>
<trkpt lat="50.454505" lon="5.939990"><time>2026-05-02T22:39:14Z</time></trkpt>
<trkpt lat="50.454469" lon="5.939961"><time>2026-05-02T22:49:14Z</time></trkpt>
<trkpt lat="50.454305" lon="5.939519"><time>2026-05-02T22:59:14Z</time></trkpt>
<trkpt lat="50.454289" lon="5.939307"><time>2026-05-02T23:09:14Z</time></trkpt>
<trkpt lat="50.454310" lon="5.939125"><time>2026-05-02T23:19:14Z</time></trkpt>
<trkpt lat="50.454374" lon="5.939042"><time>2026-05-02T23:29:14Z</time></trkpt>
<trkpt lat="50.454393" lon="5.938959"><time>2026-05-02T23:39:14Z</time></trkpt>
<trkpt lat="50.454368" lon="5.938831"><time>2026-05-02T23:49:14Z</time></trkpt>
<trkpt lat="50.454289" lon="5.938645"><time>2026-05-02T23:59:14Z</time></trkpt>
<trkpt lat="50.453982" lon="5.938100"><time>2026-05-03T00:09:14Z</time></trkpt>
<trkpt lat="50.453887" lon="5.937815"><time>2026-05-03T00:19:14Z</time></trkpt>
<trkpt lat="50.453808" lon="5.937700"><time>2026-05-03T00:29:14Z</time></trkpt>
<trkpt lat="50.453665" lon="5.937639"><time>2026-05-03T00:39:14Z</time></trkpt>
<trkpt lat="50.453603" lon="5.937524"><time>2026-05-03T00:49:14Z</time></trkpt>
<trkpt lat="50.453489" lon="5.937295"><time>2026-05-03T00:59:14Z</time></trkpt>
<trkpt lat="50.453378" lon="5.936897"><time>2026-05-03T01:09:14Z</time></trkpt>
</trkseg>
</trk>
<trk>
<name>lsafci3</name>
<cmt>v</cmt>
<desc>Francorchamps Chemin n°i3 Route du Cronchamps</desc>
<link href="https://chemins.be/francorchamps/chemin/i3"/><trkseg>
<trkpt lat="50.461398" lon="5.990531"><time>2026-05-02T16:09:14Z</time></trkpt>
<trkpt lat="50.459731" lon="5.990467"><time>2026-05-02T16:19:14Z</time></trkpt>
<trkpt lat="50.459540" lon="5.991862"><time>2026-05-02T16:29:14Z</time></trkpt>
<trkpt lat="50.457737" lon="5.991089"><time>2026-05-02T16:39:14Z</time></trkpt>
<trkpt lat="50.457928" lon="5.990167"><time>2026-05-02T16:49:14Z</time></trkpt>
<trkpt lat="50.457751" lon="5.989201"><time>2026-05-02T16:59:14Z</time></trkpt>
</trkseg>
</trk>
<trk>
<name>lsafci4</name>
<cmt>v</cmt>
<desc>Francorchamps Chemin n°i4 </desc>
<link href="https://chemins.be/francorchamps/chemin/i4"/><trkseg>
<trkpt lat="50.444141" lon="5.948394"><time>2026-05-02T16:09:14Z</time></trkpt>
<trkpt lat="50.443820" lon="5.948807"><time>2026-05-02T16:19:14Z</time></trkpt>
</trkseg>
</trk>
<trk>
<name>lsafci5</name>
<cmt>v</cmt>
<desc>Francorchamps Chemin n°i5 </desc>
<link href="https://chemins.be/francorchamps/chemin/i5"/><trkseg>
<trkpt lat="50.469117" lon="6.004300"><time>2026-05-02T16:09:14Z</time></trkpt>
<trkpt lat="50.464328" lon="6.004901"><time>2026-05-02T16:19:14Z</time></trkpt>
</trkseg></trk>
<trk>
<name>lsafci5</name>
<cmt>q</cmt>
<desc>Francorchamps Chemin n°i5 </desc>
<link href="https://chemins.be/francorchamps/chemin/i5"/><trkseg>
<trkpt lat="50.464328" lon="6.004901"><time>2026-05-02T16:19:14Z</time></trkpt>
<trkpt lat="50.461059" lon="6.005716"><time>2026-05-02T16:29:14Z</time></trkpt>
<trkpt lat="50.456806" lon="6.006832"><time>2026-05-02T16:39:14Z</time></trkpt>
<trkpt lat="50.455230" lon="6.007061"><time>2026-05-02T16:49:14Z</time></trkpt>
<trkpt lat="50.450967" lon="6.007490"><time>2026-05-02T16:59:14Z</time></trkpt>
<trkpt lat="50.446413" lon="6.009221"><time>2026-05-02T17:09:14Z</time></trkpt>
</trkseg>
</trk>
<trk>
<name>lsafci6</name>
<cmt>v</cmt>
<desc>Francorchamps Chemin n°i6 </desc>
<link href="https://chemins.be/francorchamps/chemin/i6"/><trkseg>
<trkpt lat="50.467696" lon="6.004558"><time>2026-05-02T16:09:14Z</time></trkpt>
<trkpt lat="50.468169" lon="6.005259"><time>2026-05-02T16:19:14Z</time></trkpt>
<trkpt lat="50.468811" lon="6.006188"><time>2026-05-02T16:29:14Z</time></trkpt>
<trkpt lat="50.468916" lon="6.006861"><time>2026-05-02T16:39:14Z</time></trkpt>
</trkseg>
</trk>
<trk>
<name>lsafci7</name>
<cmt>v</cmt>
<desc>Francorchamps Chemin n°i7 </desc>
<link href="https://chemins.be/francorchamps/chemin/i7"/><trkseg>
<trkpt lat="50.469400" lon="5.989151"><time>2026-05-02T16:09:14Z</time></trkpt>
<trkpt lat="50.468580" lon="5.988994"><time>2026-05-02T16:19:14Z</time></trkpt>
<trkpt lat="50.466832" lon="5.991454"><time>2026-05-02T16:29:14Z</time></trkpt>
<trkpt lat="50.464938" lon="5.993171"><time>2026-05-02T16:39:14Z</time></trkpt>
<trkpt lat="50.463536" lon="5.995145"><time>2026-05-02T16:49:14Z</time></trkpt>
<trkpt lat="50.462625" lon="5.996389"><time>2026-05-02T16:59:14Z</time></trkpt>
<trkpt lat="50.461979" lon="5.997419"><time>2026-05-02T17:09:14Z</time></trkpt>
<trkpt lat="50.461523" lon="5.997763"><time>2026-05-02T17:19:14Z</time></trkpt>
<trkpt lat="50.461350" lon="5.997620"><time>2026-05-02T17:29:14Z</time></trkpt>
<trkpt lat="50.461459" lon="5.996947"><time>2026-05-02T17:39:14Z</time></trkpt>
<trkpt lat="50.461632" lon="5.996447"><time>2026-05-02T17:49:14Z</time></trkpt>
</trkseg>
</trk>
<trk>
<name>lsafci8</name>
<cmt>v</cmt>
<desc>Francorchamps Chemin n°i8 Cronchamps</desc>
<link href="https://chemins.be/francorchamps/chemin/i8"/><trkseg>
<trkpt lat="50.465059" lon="5.987627"><time>2026-05-02T16:09:14Z</time></trkpt>
<trkpt lat="50.466243" lon="5.990109"><time>2026-05-02T16:19:14Z</time></trkpt>
<trkpt lat="50.466523" lon="5.990686"><time>2026-05-02T16:29:14Z</time></trkpt>
<trkpt lat="50.467045" lon="5.991762"><time>2026-05-02T16:39:14Z</time></trkpt>
<trkpt lat="50.467231" lon="5.992191"><time>2026-05-02T16:49:14Z</time></trkpt>
<trkpt lat="50.467345" lon="5.994244"><time>2026-05-02T16:59:14Z</time></trkpt>
<trkpt lat="50.468086" lon="5.994331"><time>2026-05-02T17:09:14Z</time></trkpt>
<trkpt lat="50.470391" lon="5.994601"><time>2026-05-02T17:19:14Z</time></trkpt>
</trkseg>
</trk>
<trk>
<name>lsafci9</name>
<cmt>v</cmt>
<desc>Francorchamps Chemin n°i9 </desc>
<link href="https://chemins.be/francorchamps/chemin/i9"/><trkseg>
<trkpt lat="50.456022" lon="5.977947"><time>2026-05-02T16:09:14Z</time></trkpt>
<trkpt lat="50.454779" lon="5.978397"><time>2026-05-02T16:19:14Z</time></trkpt>
<trkpt lat="50.452948" lon="5.979062"><time>2026-05-02T16:29:14Z</time></trkpt>
<trkpt lat="50.451275" lon="5.976670"><time>2026-05-02T16:39:14Z</time></trkpt>
<trkpt lat="50.450489" lon="5.975897"><time>2026-05-02T16:49:14Z</time></trkpt>
</trkseg>
</trk>
<trk>
<name>lsafcL44A</name>
<cmt>v</cmt>
<desc>Francorchamps Chemin n°L44A Ravel ligne 44A</desc>
<link href="https://chemins.be/francorchamps/chemin/L44A"/><trkseg>
<trkpt lat="50.441248" lon="5.964814"><time>2026-05-02T16:09:14Z</time></trkpt>
<trkpt lat="50.444374" lon="5.962615"><time>2026-05-02T16:19:14Z</time></trkpt>
<trkpt lat="50.447346" lon="5.959482"><time>2026-05-02T16:29:14Z</time></trkpt>
<trkpt lat="50.448910" lon="5.958023"><time>2026-05-02T16:39:14Z</time></trkpt>
<trkpt lat="50.450419" lon="5.957379"><time>2026-05-02T16:49:14Z</time></trkpt>
</trkseg></trk>
<trk>
<name>lsafcL44A</name>
<cmt>q</cmt>
<desc>Francorchamps Chemin n°L44A Ravel ligne 44A</desc>
<link href="https://chemins.be/francorchamps/chemin/L44A"/><trkseg>
<trkpt lat="50.450419" lon="5.957379"><time>2026-05-02T16:49:14Z</time></trkpt>
<trkpt lat="50.452791" lon="5.956864"><time>2026-05-02T16:59:14Z</time></trkpt>
<trkpt lat="50.453978" lon="5.956950"><time>2026-05-02T17:09:14Z</time></trkpt>
</trkseg></trk>
<trk>
<name>lsafcL44A</name>
<cmt>v</cmt>
<desc>Francorchamps Chemin n°L44A Ravel ligne 44A</desc>
<link href="https://chemins.be/francorchamps/chemin/L44A"/><trkseg>
<trkpt lat="50.453978" lon="5.956950"><time>2026-05-02T17:09:14Z</time></trkpt>
<trkpt lat="50.456565" lon="5.956622"><time>2026-05-02T17:19:14Z</time></trkpt>
<trkpt lat="50.459775" lon="5.956703"><time>2026-05-02T17:29:14Z</time></trkpt>
<trkpt lat="50.461565" lon="5.957379"><time>2026-05-02T17:39:14Z</time></trkpt>
<trkpt lat="50.463856" lon="5.959310"><time>2026-05-02T17:49:14Z</time></trkpt>
<trkpt lat="50.464850" lon="5.960802"><time>2026-05-02T17:59:14Z</time></trkpt>
<trkpt lat="50.468609" lon="5.968194"><time>2026-05-02T18:09:14Z</time></trkpt>
<trkpt lat="50.471231" lon="5.971498"><time>2026-05-02T18:19:14Z</time></trkpt>
<trkpt lat="50.474420" lon="5.973344"><time>2026-05-02T18:29:14Z</time></trkpt>
</trkseg></trk>
<trk>
<name>lsafcL44A</name>
<cmt>s</cmt>
<desc>Francorchamps Chemin n°L44A Ravel ligne 44A</desc>
<link href="https://chemins.be/francorchamps/chemin/L44A"/><trkseg>
<trkpt lat="50.474420" lon="5.973344"><time>2026-05-02T18:29:14Z</time></trkpt>
<trkpt lat="50.475138" lon="5.974144"><time>2026-05-02T18:39:14Z</time></trkpt>
</trkseg></trk>
<trk>
<name>lsafcL44A</name>
<cmt>v</cmt>
<desc>Francorchamps Chemin n°L44A Ravel ligne 44A</desc>
<link href="https://chemins.be/francorchamps/chemin/L44A"/><trkseg>
<trkpt lat="50.475138" lon="5.974144"><time>2026-05-02T18:39:14Z</time></trkpt>
<trkpt lat="50.475429" lon="5.973933"><time>2026-05-02T18:49:14Z</time></trkpt>
<trkpt lat="50.477479" lon="5.975447"><time>2026-05-02T18:59:14Z</time></trkpt>
<trkpt lat="50.478913" lon="5.977185"><time>2026-05-02T19:09:14Z</time></trkpt>
<trkpt lat="50.480545" lon="5.980082"><time>2026-05-02T19:19:14Z</time></trkpt>
<trkpt lat="50.482460" lon="5.985424"><time>2026-05-02T19:29:14Z</time></trkpt>
<trkpt lat="50.483521" lon="5.988107"><time>2026-05-02T19:39:14Z</time></trkpt>
<trkpt lat="50.485269" lon="5.990424"><time>2026-05-02T19:49:14Z</time></trkpt>
<trkpt lat="50.486670" lon="5.991321"><time>2026-05-02T19:59:14Z</time></trkpt>
</trkseg>
</trk>
</gpx>